GFSMA_850_thetae_000.txt.gz
Theta_e
346 347 344 344 342 342 342 343 342 342 342 342 342 341 343 343 341 340 342 342 342 343 343 342 339 329 330 324 327 326 327 326 325 324 324 323 324 325 326 327 328 328 328
348 346 346 344 343 343 340 341 342 341 339 338 339 340 343 344 343 341 339 341 341 343 343 344 341 339 332 330 325 326 328 325 327 327 328 327 330 330 329 331 332 331 331
344 345 344 343 343 344 343 341 341 340 339 339 338 338 339 341 344 343 343 343 342 342 345 345 344 341 339 330 327 324 324 330 329 326 326 326 326 329 333 334 331 332 332
346 347 345 344 343 342 342 343 342 339 336 335 333 332 330 331 337 342 342 343 342 342 342 343 344 343 341 339 330 328 324 324 325 327 327 327 328 327 328 330 329 328 328
345 344 345 345 344 342 342 339 338 338 336 333 330 329 331 330 330 334 339 341 343 344 343 342 340 342 344 342 337 333 325 325 325 328 329 328 328 328 329 329 328 328 327
347 346 349 344 341 339 339 339 337 336 336 334 336 330 328 328 330 332 331 337 341 343 344 344 343 341 342 345 344 341 338 331 326 326 327 328 330 328 328 329 330 328 327
348 343 340 339 335 333 333 335 333 333 333 338 333 332 331 330 332 336 337 340 337 338 342 342 341 342 342 342 342 344 343 340 337 334 330 325 328 331 329 330 331 329 326
342 339 334 329 332 336 335 333 337 335 335 336 335 336 336 334 336 336 335 335 335 341 342 341 341 340 341 341 340 341 343 343 341 339 338 337 328 325 327 328 328 326 326
336 331 327 328 332 332 334 335 334 336 337 336 336 337 337 337 334 333 333 334 336 340 339 340 339 339 339 340 341 341 340 342 343 342 341 340 338 326 325 327 328 327 326
327 330 335 332 333 334 332 328 334 335 336 334 334 334 334 335 335 335 332 331 330 332 335 336 336 337 338 338 340 341 342 341 341 340 342 343 340 338 326 323 325 326 328
332 333 334 336 336 332 326 329 329 330 330 331 333 332 332 331 330 330 328 324 323 324 325 327 328 332 335 334 335 337 338 340 342 341 340 340 341 342 339 326 333 325 325
326 331 334 335 334 326 323 326 329 329 332 332 329 327 327 327 325 326 328 322 321 320 319 324 325 327 328 330 334 336 336 335 337 342 342 342 341 340 342 342 340 337 326
329 333 333 332 326 322 322 329 330 329 331 330 331 327 326 325 325 322 320 322 321 318 319 319 318 319 321 322 327 332 336 338 338 338 340 343 343 341 340 342 342 340 331
326 325 329 328 328 324 329 332 331 331 328 330 331 329 327 327 325 323 319 319 319 318 318 319 319 318 320 323 324 325 332 336 337 340 339 340 340 342 341 340 341 341 339
325 328 328 331 330 325 324 330 332 333 333 332 332 331 329 328 325 324 320 319 318 318 318 318 318 319 318 318 323 327 326 331 335 337 336 336 336 340 344 340 341 342 341
323 327 328 325 327 328 325 326 328 329 330 329 331 330 330 327 325 325 324 320 319 319 319 319 317 317 317 318 319 326 331 331 333 333 334 334 335 335 342 343 342 341 342
323 324 327 327 324 321 326 328 328 328 329 331 330 327 327 327 325 326 325 323 319 320 319 318 318 318 320 319 320 322 328 330 331 332 336 337 335 338 340 342 344 343 344
322 322 324 323 325 325 326 325 326 327 329 328 327 328 328 328 322 324 326 325 322 322 320 317 317 319 321 320 320 322 323 328 332 332 333 335 337 335 336 339 341 341 342
319 321 324 325 325 326 326 329 329 331 333 331 329 327 324 322 321 321 324 325 325 324 321 320 319 319 319 319 320 321 322 323 330 333 333 333 334 335 338 337 338 340 341
321 325 327 328 329 327 328 329 329 331 330 328 324 323 322 322 323 322 323 323 322 322 320 319 319 319 319 319 319 320 321 322 326 331 334 333 332 333 334 337 339 338 340
323 327 329 330 330 327 327 330 328 328 328 325 323 323 323 322 321 322 324 324 324 324 320 320 319 319 319 320 319 320 320 322 322 327 332 335 332 334 335 338 335 335 339
325 331 330 329 327 324 326 330 329 326 325 323 323 323 323 322 321 322 323 323 323 322 321 321 320 318 318 319 319 320 320 321 322 325 329 336 335 334 338 338 335 337 339
325 332 331 329 328 326 328 329 328 327 326 323 322 323 324 322 321 322 321 321 321 320 320 320 318 318 318 317 318 320 321 321 320 323 327 334 339 335 334 339 337 334 334
327 331 332 331 329 327 326 328 328 327 325 322 322 321 321 320 322 322 322 321 321 320 320 319 318 318 317 317 318 320 321 321 321 323 325 329 336 338 335 338 339 339 339
331 334 333 324 331 330 328 325 326 327 325 322 322 322 322 322 321 320 322 322 321 321 321 319 317 317 317 316 319 320 321 321 321 323 325 328 336 338 338 336 337 339 339
336 335 334 331 328 329 328 327 326 325 323 322 322 322 323 320 319 322 322 321 322 321 319 320 320 318 317 317 319 320 320 322 324 324 326 330 336 338 338 337 339 338 338

GFSMA_850_thetae_003.txt.gz
Theta_e
345 346 344 344 343 341 341 340 341 342 341 339 339 339 338 340 342 342 339 340 340 341 343 343 341 332 329 325 326 325 324 323 322 321 322 323 323 324 324 325 326 327 328
345 346 345 344 343 342 341 341 341 339 339 338 337 336 336 337 340 342 341 339 339 340 341 343 343 340 334 329 327 325 327 325 326 325 325 325 325 325 326 328 329 332 330
348 344 343 341 343 342 342 341 341 341 340 336 334 332 331 332 331 338 342 341 342 342 341 342 344 344 341 338 332 329 325 326 328 326 326 327 327 327 331 331 331 332 332
347 344 344 343 344 344 343 341 341 337 334 332 330 328 327 326 324 327 331 338 341 343 342 341 342 342 343 342 340 336 330 326 325 330 329 326 326 327 326 327 331 332 330
345 343 343 342 345 345 342 341 337 336 333 331 328 331 328 327 327 326 328 331 339 342 343 342 342 342 341 341 343 341 338 333 327 325 326 327 329 327 328 328 328 328 328
344 344 345 348 343 338 335 332 334 332 330 332 334 331 330 329 330 334 334 333 334 338 343 344 343 343 342 341 340 343 342 338 337 328 325 325 329 329 329 328 329 329 329
347 347 341 339 337 333 333 332 329 330 332 335 335 332 330 331 332 336 335 337 336 338 335 338 341 341 341 341 342 342 342 344 344 341 338 330 326 327 328 331 328 328 331
341 341 338 333 329 328 329 330 334 335 334 336 335 334 333 334 333 331 331 332 332 336 338 340 341 340 340 340 340 341 341 341 341 343 343 340 338 335 331 326 330 329 330
339 335 330 324 326 329 332 329 329 334 337 336 335 334 335 335 332 331 331 330 330 332 334 338 338 338 338 338 338 338 339 340 340 340 342 343 341 339 338 337 327 326 327
335 327 331 331 332 334 332 326 328 332 334 333 332 332 332 333 333 332 328 324 322 322 324 327 330 332 333 335 335 334 336 339 339 340 340 340 341 340 340 337 334 324 325
329 328 332 333 334 334 328 326 328 328 329 329 332 329 330 329 329 325 322 320 320 319 319 319 323 325 327 329 330 333 333 334 336 335 339 340 340 339 342 341 338 336 323
329 327 333 335 334 330 324 325 328 327 329 331 328 324 324 324 325 324 323 320 319 318 317 318 319 319 320 322 323 326 330 333 335 334 334 338 339 340 340 340 341 341 335
323 319 325 331 331 324 322 328 328 329 328 327 329 328 326 326 326 323 323 320 319 319 317 315 318 318 318 318 319 321 324 325 333 337 336 337 338 340 341 341 340 340 341
320 322 325 329 330 327 324 326 328 329 329 327 328 329 329 328 327 325 323 320 320 319 318 318 318 317 316 316 317 318 318 322 325 332 338 338 338 338 340 342 342 340 339
327 325 324 324 328 328 325 322 325 328 331 330 330 330 330 329 329 326 325 323 322 320 319 318 319 317 316 317 320 321 319 318 326 326 331 336 337 339 338 338 341 341 339
328 322 324 328 324 325 326 325 321 324 326 327 330 330 331 329 328 327 326 325 324 324 320 319 320 317 316 319 319 320 320 320 322 326 327 331 336 337 336 336 338 338 340
318 321 323 325 325 322 319 321 326 328 328 329 329 331 329 326 328 329 327 325 325 325 323 321 323 320 316 318 319 319 319 319 320 323 327 329 332 334 334 335 337 336 337
320 321 322 322 322 323 324 325 324 326 327 327 327 329 329 329 329 328 324 322 324 324 324 324 323 320 318 317 318 319 319 319 320 321 323 328 331 332 335 336 335 334 337
319 319 319 319 320 321 323 325 328 329 329 329 324 325 324 324 323 323 323 324 324 324 324 323 322 320 318 318 318 319 318 318 319 321 322 325 330 333 334 336 336 336 338
319 319 321 322 322 323 325 327 329 329 325 325 325 323 322 322 322 321 320 321 323 324 324 324 323 321 319 319 318 318 318 318 318 319 320 323 327 334 334 333 335 336 335
319 320 323 324 326 327 326 324 325 327 326 323 323 321 322 323 323 323 320 320 322 323 322 322 322 320 320 319 318 318 317 318 318 319 320 322 325 330 335 333 333 334 334
320 320 324 326 328 327 325 323 324 327 326 324 324 322 321 321 322 322 320 321 322 322 321 321 320 320 319 318 317 317 316 317 318 319 320 321 324 333 333 337 332 333 333
321 321 325 328 327 326 327 327 328 328 326 327 325 322 320 320 320 320 320 322 321 321 321 321 319 319 319 317 317 317 316 317 318 319 320 321 323 326 335 339 336 334 334
321 324 324 329 331 331 331 329 328 326 326 326 325 321 321 320 320 321 321 321 320 321 321 320 321 320 318 317 318 317 316 317 318 319 320 321 322 324 332 338 337 335 337
321 328 327 330 330 328 329 326 327 326 325 324 324 321 322 321 322 322 320 320 321 321 321 319 317 318 319 320 318 315 317 318 318 318 321 322 323 325 329 336 339 337 339
323 332 332 333 332 330 328 325 327 328 324 323 323 322 322 322 321 318 320 321 321 321 320 318 316 318 320 318 316 316 318 317 317 318 321 322 323 325 328 335 339 337 338

GFSMA_850_thetae_006.txt.gz
Theta_e
343 344 345 342 342 342 341 340 339 340 340 339 337 336 335 335 338 340 341 339 339 341 341 342 343 342 330 329 326 332 337 328 323 323 325 324 322 322 322 323 325 326 327
342 344 345 343 342 342 341 342 341 340 339 339 337 334 334 333 333 335 341 341 339 338 339 341 343 343 341 333 330 331 329 333 326 323 323 331 323 323 324 325 326 327 329
344 344 343 342 341 342 343 342 341 341 340 335 332 330 327 326 326 326 331 341 340 341 341 340 341 343 343 341 340 334 329 329 339 329 326 326 327 327 327 329 329 329 333
345 346 344 342 343 342 344 343 341 340 336 333 331 328 328 325 325 326 322 326 337 341 341 341 341 342 343 343 342 342 341 333 328 328 338 334 327 327 327 327 329 332 334
346 345 344 344 343 344 343 341 339 337 333 330 327 329 330 328 326 327 327 325 326 333 340 342 342 341 341 341 341 342 342 340 337 335 329 336 330 329 327 327 327 327 328
344 342 344 343 345 340 336 332 329 331 329 332 332 331 331 330 332 333 335 335 334 334 333 338 342 343 342 342 341 341 341 343 340 337 336 331 326 327 330 330 328 328 329
344 344 345 341 338 336 332 331 330 325 332 333 334 330 331 331 333 333 334 333 334 335 337 335 336 340 341 340 341 341 341 341 342 343 342 340 339 330 325 328 330 329 328
344 344 340 336 333 329 325 324 325 332 332 335 333 332 330 335 334 330 331 331 331 331 334 337 339 339 339 339 339 340 340 341 341 341 341 342 342 340 337 333 329 327 331
340 339 335 331 323 323 327 328 326 329 334 334 333 331 332 332 329 331 330 326 323 324 327 331 334 337 338 338 338 338 338 339 340 340 340 340 340 341 341 339 337 337 329
339 334 325 323 326 328 332 329 325 327 331 332 330 330 330 332 331 329 324 321 320 319 319 319 322 325 328 330 332 333 334 335 336 338 339 340 340 340 340 341 340 338 337
337 329 324 328 330 332 332 327 325 327 328 329 331 328 327 328 327 324 322 320 319 318 317 318 319 319 319 322 324 326 328 331 332 333 337 338 338 340 340 340 340 340 338
332 327 327 331 332 331 328 325 326 327 329 331 329 324 324 324 324 323 322 321 320 318 318 317 315 317 317 317 317 318 320 322 325 329 332 334 334 335 337 339 340 340 341
329 329 326 329 330 328 323 324 327 328 328 327 327 328 329 328 327 327 325 323 321 320 319 318 317 318 317 316 316 318 318 318 318 320 323 329 335 334 334 337 339 340 340
327 319 320 322 326 324 324 322 326 329 329 329 329 328 328 328 328 328 327 325 324 323 321 320 317 317 319 316 316 318 318 319 320 319 318 323 325 336 336 336 337 340 341
318 321 323 321 324 326 327 326 324 324 328 329 330 329 329 328 328 328 328 326 326 325 325 320 319 318 320 321 316 317 318 318 319 319 320 319 323 325 335 338 338 337 340
321 323 324 322 324 324 323 324 324 321 320 324 326 328 330 330 330 326 327 328 328 324 325 322 320 320 320 322 319 316 317 318 318 318 318 319 321 325 326 334 337 337 338
320 322 319 321 322 324 321 319 318 323 324 325 326 327 327 328 328 328 328 329 328 323 323 321 322 321 320 321 321 317 317 318 318 318 319 319 319 321 326 327 333 336 338
318 319 319 320 322 323 322 323 322 322 325 328 330 331 327 328 326 328 328 327 324 324 326 324 322 322 323 322 321 318 318 319 318 318 318 318 318 320 322 326 329 334 337
318 320 320 319 320 321 321 320 321 323 325 327 327 326 324 324 322 322 322 322 321 321 323 324 323 322 323 321 319 318 319 319 318 318 318 317 318 319 321 323 328 330 334
320 320 319 319 320 321 320 319 320 323 326 328 326 323 324 321 321 322 322 322 322 320 321 322 322 321 321 320 319 319 319 318 316 318 318 318 318 319 319 322 324 330 331
322 322 320 321 322 323 321 320 322 323 324 326 326 324 323 323 320 320 321 322 322 321 322 321 321 320 320 320 320 319 319 318 317 318 317 317 318 319 320 322 325 328 332
324 321 320 323 324 325 322 323 324 325 325 326 326 325 325 324 320 320 320 320 320 320 322 321 322 321 320 320 320 320 319 318 318 317 316 317 318 319 320 320 327 330 333
320 319 321 325 324 326 323 327 329 328 328 328 327 327 327 325 321 321 320 320 320 322 321 321 321 321 320 319 318 319 319 318 318 316 317 318 319 319 320 320 323 331 333
324 325 326 326 323 327 326 330 332 331 329 328 326 326 326 325 322 321 321 321 322 320 320 321 321 320 318 316 317 319 320 318 316 317 317 318 318 319 320 320 322 328 334
332 333 331 330 328 327 329 329 328 330 326 327 326 325 324 323 322 322 321 321 319 318 320 320 319 316 315 318 320 318 316 317 316 317 317 317 318 319 320 321 323 328 335
338 335 334 332 331 331 332 330 330 326 324 325 324 323 323 323 320 319 317 317 319 320 318 317 315 313 317 319 319 317 317 316 315 316 317 317 318 320 321 322 324 328 336

GFSMA_850_thetae_009.txt.gz
Theta_e
343 342 345 344 342 342 341 341 341 340 340 339 338 336 334 333 333 334 336 341 339 339 342 341 342 343 341 328 329 338 333 328 325 337 327 329 325 321 320 322 324 325 327
343 342 344 343 342 341 342 342 341 340 341 339 336 332 330 328 327 329 332 339 340 339 338 339 340 343 343 342 330 328 334 338 335 324 324 330 333 324 324 324 324 325 326
342 342 342 342 341 341 342 342 343 342 340 337 334 331 328 326 324 323 324 326 338 340 339 341 340 341 343 343 343 339 331 333 337 335 327 325 332 327 326 332 327 328 329
344 343 343 343 341 343 342 345 343 342 339 335 331 327 327 329 326 323 324 322 322 333 340 341 341 341 342 343 344 342 342 341 333 332 337 332 331 328 327 328 328 331 332
344 344 344 343 343 343 343 342 338 334 330 329 328 332 331 330 328 327 327 328 325 324 327 336 342 342 341 341 341 342 343 342 342 338 334 330 334 336 330 327 327 327 327
345 343 342 343 344 344 339 335 332 331 328 328 328 333 330 331 332 333 335 335 335 334 333 328 334 342 343 342 341 341 341 341 342 342 339 338 333 328 328 330 330 328 329
344 343 344 344 344 338 335 332 331 327 336 329 333 336 332 333 332 331 333 333 332 333 334 338 335 336 341 342 341 341 341 341 341 341 343 342 339 338 336 327 326 329 331
344 344 344 343 337 333 327 322 327 333 333 332 337 332 334 337 337 335 332 329 327 328 331 334 337 338 339 339 339 340 339 340 340 341 342 342 342 343 342 340 335 329 327
341 338 340 336 331 321 324 326 327 326 335 332 332 334 335 335 334 334 330 322 320 319 320 322 326 331 335 337 337 338 338 339 339 339 340 341 341 341 341 342 341 339 336
333 339 337 328 320 323 324 325 324 325 327 335 329 329 330 333 334 333 329 321 319 318 318 318 319 319 321 324 326 328 330 332 334 335 337 339 339 341 343 341 340 341 341
332 337 332 321 325 326 328 328 323 324 324 327 330 330 326 326 324 330 327 327 325 319 318 317 316 316 317 318 318 318 319 322 325 327 331 333 335 338 340 341 342 340 341
334 333 326 323 330 330 330 325 323 324 326 328 330 325 329 329 329 330 329 329 327 325 321 320 318 317 318 317 316 316 317 318 318 319 320 323 327 332 334 337 337 341 342
325 325 324 322 328 332 327 323 324 327 327 326 326 329 328 328 328 330 330 329 328 327 324 323 317 317 317 319 318 316 317 318 318 319 319 319 318 321 325 333 333 334 338
324 326 320 322 326 328 325 323 324 326 328 328 328 329 329 329 328 329 331 331 328 327 326 325 321 317 317 317 320 320 317 316 317 318 318 318 319 319 319 323 331 335 334
324 322 319 321 322 324 324 325 324 324 325 328 329 328 327 332 330 330 330 328 329 329 328 325 324 322 319 319 319 321 321 318 317 317 317 318 318 318 319 320 322 328 336
319 318 320 324 322 322 323 325 324 325 323 321 323 325 325 327 328 328 328 329 328 329 328 325 325 323 319 320 321 321 322 320 317 317 318 318 318 318 318 319 320 322 326
318 318 320 323 321 322 322 319 320 319 319 322 324 324 325 327 328 327 326 327 329 329 329 324 325 326 320 319 320 321 320 318 317 318 318 318 317 317 318 318 319 319 323
319 319 319 319 319 320 321 321 320 323 324 323 325 326 325 325 324 323 323 322 323 324 325 326 323 325 326 323 320 319 319 318 318 318 318 318 317 318 318 318 318 319 320
321 321 319 318 319 320 320 320 319 322 324 325 325 326 325 326 324 322 321 322 327 323 325 325 324 324 325 325 325 322 323 321 320 320 320 318 317 319 318 317 319 319 319
321 320 318 319 319 320 320 319 320 322 323 323 325 327 327 324 323 322 321 320 321 322 325 325 325 325 325 324 324 324 323 323 323 322 321 319 319 319 319 319 319 319 319
328 325 321 320 321 321 321 321 322 323 323 323 323 325 327 326 324 324 323 320 319 322 325 325 324 324 324 323 323 323 323 322 321 321 321 321 321 320 319 320 320 321 321
330 332 330 327 326 323 322 324 324 324 324 325 325 327 328 327 327 326 325 321 320 320 320 321 324 324 324 323 323 323 321 320 319 320 321 320 320 319 319 320 319 319 320
331 332 330 331 323 328 323 326 324 326 327 326 328 329 329 326 326 327 325 322 322 321 321 321 321 321 321 321 319 317 316 318 319 319 319 318 319 318 317 318 319 319 320
334 330 334 324 328 332 327 327 329 329 331 331 330 329 328 326 326 325 324 322 322 322 321 319 320 320 319 318 315 316 319 319 319 318 319 319 318 317 318 318 318 319 320
334 336 327 327 333 332 330 327 326 328 329 330 329 326 327 325 323 323 323 320 319 318 318 319 319 317 316 313 317 317 318 318 318 319 317 317 317 317 317 317 318 319 320
334 335 334 335 333 332 329 327 325 325 329 329 328 325 325 323 323 321 317 315 316 317 318 319 317 312 314 317 317 318 318 318 318 317 318 317 317 316 317 318 319 322 324

GFSMA_850_thetae_012.txt.gz
Theta_e
347 345 345 348 345 349 349 348 348 347 348 346 346 344 342 341 340 340 341 341 341 339 339 341 341 343 343 331 329 332 326 324 325 324 324 337 336 330 323 321 326 330 327
349 350 349 348 348 347 349 347 347 347 348 347 345 343 340 337 337 338 338 340 340 341 340 339 339 341 343 343 336 329 334 335 329 326 332 329 327 326 324 323 323 324 325
345 343 348 348 348 348 341 347 347 347 349 345 342 340 337 337 335 337 337 336 339 343 341 339 340 340 341 343 343 342 330 337 334 336 327 325 327 338 333 325 325 326 327
345 348 349 349 348 347 346 345 346 347 342 339 336 335 335 337 338 337 336 337 335 334 341 342 341 341 341 342 343 343 343 342 338 334 334 335 330 327 328 328 330 330 330
349 347 349 347 345 347 347 344 345 342 338 335 333 333 337 338 338 336 338 339 340 339 335 338 338 340 342 341 342 342 343 343 342 342 338 333 331 334 337 331 327 327 327
348 346 347 347 343 344 346 344 341 340 338 336 334 336 338 339 338 338 338 337 338 341 341 342 341 344 342 342 341 341 341 341 341 342 342 340 337 334 331 334 331 330 328
346 346 348 347 344 346 345 343 339 336 334 337 337 335 338 338 338 338 338 334 334 336 340 343 342 342 343 343 342 341 341 342 341 339 341 342 342 339 337 335 331 328 331
347 347 347 347 344 343 343 339 337 335 335 337 336 335 334 337 337 337 336 331 330 332 334 337 340 339 342 344 341 339 340 340 340 341 340 340 342 343 342 342 341 339 331
347 345 345 345 343 336 334 338 338 336 336 338 337 336 334 334 333 336 336 331 329 329 330 331 333 328 330 334 336 336 338 339 339 339 339 340 340 341 342 342 342 342 341
348 346 343 343 332 335 337 338 337 336 331 335 335 336 335 334 334 333 332 330 327 327 326 326 327 325 319 327 325 323 325 328 331 334 335 336 338 339 340 341 342 341 341
344 343 343 334 323 330 338 337 336 331 336 334 334 335 335 333 333 331 329 330 329 327 326 325 325 324 326 318 325 319 317 318 319 321 324 328 331 333 335 338 339 341 342
344 343 342 327 327 336 338 337 332 330 330 335 335 334 331 331 330 330 329 330 331 329 327 327 326 325 325 325 322 317 316 316 317 317 318 318 319 321 325 329 333 336 339
342 344 334 325 333 332 338 335 329 336 334 335 334 334 333 331 331 331 330 329 329 329 329 329 328 325 325 325 325 323 320 317 317 317 318 318 318 319 319 319 321 327 333
339 341 326 327 324 337 336 325 333 335 335 334 335 334 332 331 331 331 330 330 330 329 330 332 330 327 325 325 325 322 324 326 320 318 317 317 317 318 318 318 319 319 321
339 341 324 325 334 335 326 330 333 335 335 334 333 333 333 329 330 330 331 332 331 330 329 329 328 327 327 326 326 326 327 327 320 321 318 317 317 317 318 318 318 318 319
323 336 327 319 326 329 324 325 334 335 335 332 330 332 332 330 330 331 332 332 331 330 329 327 326 326 328 328 328 327 328 324 322 321 318 317 317 318 318 317 318 318 318
319 319 321 324 319 324 329 330 330 331 334 333 331 333 334 334 332 330 329 329 329 328 328 327 326 326 328 329 329 329 328 327 327 326 324 318 316 317 317 317 317 318 318
321 319 321 322 324 328 334 331 331 330 331 331 332 333 334 332 333 333 331 331 329 328 328 327 327 327 326 326 327 328 328 326 326 325 325 321 319 316 314 315 316 318 317
324 320 319 320 324 322 331 334 334 333 332 332 333 333 333 333 333 331 330 329 328 327 327 327 327 327 326 325 326 326 326 324 326 325 324 324 322 321 317 318 318 318 317
330 321 323 322 325 321 323 324 333 332 329 331 333 334 333 333 332 332 330 331 331 330 328 327 327 326 325 325 325 325 324 323 323 324 324 323 321 321 322 323 322 321 321
338 325 323 333 333 323 322 323 322 331 328 332 333 334 333 334 329 328 328 328 328 327 327 326 325 325 324 325 325 324 323 323 323 323 322 320 320 322 323 323 323 322 321
344 329 327 329 332 330 319 321 322 331 332 333 335 334 334 332 329 328 327 327 327 325 324 325 325 325 326 326 324 324 323 322 322 320 320 322 323 323 322 322 322 321 320
346 340 333 332 334 331 320 324 325 325 332 333 335 335 329 330 331 330 328 326 326 325 323 323 324 326 325 324 324 322 321 320 318 320 321 322 322 322 321 321 321 319 319
346 337 333 335 333 331 326 321 329 326 327 331 328 326 328 328 328 329 329 327 324 327 326 325 325 324 323 321 318 317 316 318 318 319 321 323 321 320 320 320 319 319 320
344 339 335 333 332 331 333 324 330 327 331 330 329 329 329 329 327 326 323 323 323 324 323 323 320 317 316 312 311 317 318 320 319 320 320 321 320 320 319 318 319 320 321
343 337 334 334 334 333 327 330 332 330 332 329 326 329 329 327 326 324 323 321 323 324 324 321 320 320 318 318 318 319 319 319 320 318 318 320 320 318 317 317 318 320 321

GFSMA_850_thetae_015.txt.gz
Theta_e
349 350 350 350 351 348 348 348 347 349 346 347 346 345 344 342 341 338 341 341 339 340 338 340 341 342 340 331 332 339 329 325 324 322 323 325 335 332 328 324 324 331 336
350 349 349 349 349 348 348 348 350 346 345 345 343 342 339 338 336 336 336 340 339 338 340 339 339 340 343 343 334 332 338 334 328 325 324 327 333 336 326 323 322 322 324
350 349 349 350 348 348 348 348 347 348 345 344 340 338 336 337 336 338 337 336 339 338 339 340 339 340 340 342 343 340 330 338 339 334 328 326 327 324 332 331 325 325 326
352 351 350 349 348 349 349 349 348 346 343 340 336 335 335 337 339 339 338 338 336 336 338 338 340 340 341 340 342 342 342 339 334 332 334 333 329 327 329 332 328 330 332
351 351 349 350 349 348 348 345 346 344 340 337 334 332 337 339 338 338 337 339 341 338 337 339 338 335 339 341 341 342 343 342 342 341 338 333 331 333 332 332 331 328 327
351 352 350 350 348 350 348 346 345 341 339 338 335 334 337 339 339 338 339 338 338 341 342 342 343 342 340 342 341 340 341 341 342 342 342 342 338 333 331 331 334 334 331
351 349 347 349 350 346 348 345 342 337 336 339 338 339 338 338 340 338 338 335 335 336 339 341 343 346 344 341 342 342 342 341 342 341 340 341 342 341 337 334 332 330 328
354 350 349 349 349 347 344 343 339 337 336 339 338 336 337 338 337 338 337 333 333 333 336 339 340 338 342 340 340 341 341 341 340 341 341 340 339 341 342 341 337 335 335
350 348 350 347 350 342 337 338 340 338 338 338 336 338 336 339 335 336 337 333 331 331 332 334 335 333 335 336 336 335 337 338 338 338 338 339 340 340 340 341 342 342 342
348 350 349 347 345 339 337 339 339 337 334 337 336 337 332 335 337 335 334 333 330 330 327 329 329 329 328 330 327 321 322 325 327 330 333 335 336 337 338 339 340 341 342
348 347 346 347 343 328 338 342 339 333 340 337 335 335 337 335 332 333 332 333 332 330 329 328 327 326 326 324 328 322 316 317 317 318 319 322 325 328 331 333 334 337 339
346 346 346 345 339 337 341 340 339 339 335 337 337 335 333 332 333 332 331 331 332 331 330 329 329 328 327 327 326 323 320 317 316 317 317 318 318 318 319 321 324 328 331
346 345 346 345 338 331 342 340 339 339 338 338 333 338 334 332 332 331 331 330 330 330 331 331 331 330 328 327 327 327 326 319 320 318 317 317 317 317 318 318 318 318 319
344 344 344 344 336 342 341 341 337 336 337 336 336 335 335 333 332 332 332 331 331 332 331 330 331 332 329 328 327 326 325 328 326 322 321 319 318 317 317 317 317 318 318
342 343 347 340 340 339 341 338 334 338 337 338 336 335 334 333 331 331 332 332 332 332 331 332 331 330 329 329 329 328 329 329 328 325 321 321 321 318 317 317 317 317 317
340 342 344 336 335 339 341 333 336 337 337 336 334 333 334 332 332 332 331 332 332 331 331 330 331 329 329 330 329 329 328 328 328 328 326 325 324 320 318 317 317 317 317
344 342 342 341 337 339 339 338 334 335 338 337 335 333 334 335 333 332 331 331 330 329 330 328 329 329 328 329 328 329 330 328 329 328 327 327 326 323 319 316 316 317 317
342 334 331 334 332 336 336 329 337 336 334 334 334 333 335 333 334 334 333 332 331 329 329 328 329 329 328 328 328 326 328 328 327 326 325 324 324 324 324 322 317 314 315
333 332 327 325 323 323 326 329 331 325 334 334 334 334 334 334 333 333 333 332 330 329 331 329 328 326 327 326 327 326 326 328 326 327 326 325 325 325 324 322 320 320 322
334 332 328 322 320 320 332 330 332 323 330 335 333 334 335 334 334 334 334 333 332 330 330 329 327 327 327 325 327 327 325 326 325 325 325 324 324 323 323 320 320 323 324
344 337 330 325 320 322 331 331 331 323 333 331 332 334 335 333 333 334 333 331 331 330 329 327 326 326 325 326 327 327 326 325 323 324 323 323 322 321 320 322 324 324 324
351 345 340 332 322 323 332 332 332 322 322 333 333 334 334 334 333 331 330 328 328 327 327 329 328 326 326 326 326 326 326 324 322 322 321 320 319 321 322 322 323 322 322
352 347 344 337 323 324 331 331 333 321 328 331 333 334 335 335 334 333 331 329 326 326 327 327 326 326 327 324 324 323 323 322 320 318 319 320 321 322 321 324 323 321 321
352 348 344 340 326 326 330 332 334 322 328 326 329 333 335 334 328 329 329 328 327 330 328 328 326 325 325 324 322 319 316 316 318 320 321 322 321 321 320 323 321 319 318
352 348 344 343 331 331 329 334 332 325 327 326 329 331 333 330 329 328 329 322 326 325 328 325 324 324 323 319 319 318 319 319 319 321 321 320 321 320 319 320 319 318 319
349 346 345 340 337 335 334 335 332 328 324 328 331 323 330 329 327 328 326 325 324 327 326 326 326 324 321 322 319 318 319 320 319 319 318 318 317 318 320 319 318 317 318

GFSMA_850_thetae_021.txt.gz
Theta_e
347 347 348 347 345 345 345 345 344 344 342 342 341 341 339 334 338 337 336 336 339 335 336 338 342 339 331 326 332 329 326 323 323 335 335 330 326 324 333 333 331 327 334
346 347 347 346 345 347 347 345 344 343 339 341 343 342 338 336 336 337 336 337 336 337 334 337 338 341 342 333 329 335 334 325 324 322 332 335 325 328 330 326 323 321 323
346 344 346 346 346 346 346 345 347 343 343 341 339 337 334 335 336 337 337 336 337 338 337 334 337 338 338 342 340 331 331 337 329 326 324 323 323 331 335 333 324 324 324
348 347 345 345 350 349 346 345 346 343 342 340 338 333 334 337 338 339 337 337 337 336 336 337 335 335 336 338 339 342 340 334 335 335 331 328 327 331 329 325 332 333 328
349 348 341 347 347 348 346 344 344 343 342 340 334 336 335 339 336 338 337 338 337 340 339 340 338 336 337 336 338 340 342 341 337 335 336 332 332 332 331 329 328 328 328
350 347 347 343 346 348 345 345 344 343 333 336 337 334 334 337 336 339 339 336 338 338 342 341 341 343 338 337 338 339 339 341 342 342 341 338 335 333 332 333 332 332 333
350 349 345 344 346 345 345 344 342 339 337 338 336 336 338 336 337 338 338 335 334 336 338 339 338 341 344 340 335 338 339 339 340 340 341 341 341 341 340 338 334 333 331
348 345 346 344 344 346 346 344 341 327 337 337 337 334 338 338 339 338 336 333 334 335 336 335 336 336 337 337 338 336 337 340 341 340 340 340 340 340 340 340 340 340 339
350 346 346 342 346 347 346 343 336 335 339 337 335 336 340 339 338 337 336 334 331 329 331 330 329 326 333 336 329 328 326 332 336 337 338 338 339 339 338 339 339 339 340
349 349 345 342 347 350 345 336 331 328 337 339 335 336 331 333 338 338 336 334 331 330 330 328 327 326 325 325 321 320 321 316 316 318 320 322 325 328 331 334 337 338 338
350 344 347 344 346 346 340 335 331 324 337 337 335 337 335 331 333 330 335 334 332 331 330 328 329 328 326 326 327 325 324 323 322 318 316 316 316 317 317 318 320 325 329
348 346 345 348 343 338 335 331 329 324 328 336 335 335 334 333 334 334 332 331 331 332 330 329 329 329 330 328 328 327 326 326 324 323 321 319 317 317 316 316 317 317 318
347 348 342 345 334 330 319 329 325 320 322 326 333 335 333 333 332 332 331 331 331 331 331 331 330 330 330 330 331 328 328 327 327 327 327 326 320 318 317 318 318 317 317
346 338 335 328 328 324 318 324 324 320 320 319 318 318 333 334 331 332 332 331 330 329 329 330 332 332 331 331 331 328 328 328 329 327 324 327 324 323 322 320 319 319 318
343 344 345 344 341 329 319 322 323 321 324 333 326 321 326 334 333 332 331 332 331 331 329 328 330 331 330 331 329 329 329 330 329 326 324 325 326 327 327 326 324 323 321
346 347 346 345 345 342 324 322 324 324 329 334 325 323 327 324 332 331 332 331 331 330 330 330 332 329 329 330 328 328 327 326 327 326 325 326 326 327 326 325 324 323 323
346 345 346 345 344 342 333 322 324 322 328 330 329 330 328 326 325 331 332 332 332 332 330 331 330 328 327 327 328 327 325 325 326 326 327 326 325 326 326 327 326 325 324
350 347 344 345 344 342 340 325 323 322 327 333 333 332 331 328 322 319 327 331 329 329 330 329 330 329 330 327 325 326 326 325 326 326 327 326 325 325 325 325 326 326 325
346 349 348 345 342 340 339 337 325 324 326 331 327 332 328 326 323 322 332 330 331 333 333 330 329 330 328 328 329 328 326 326 327 329 327 326 324 325 325 324 324 323 324
346 349 347 344 343 341 340 339 333 326 323 331 327 332 330 328 324 326 332 332 331 331 331 330 331 331 328 330 328 327 328 327 325 323 324 324 324 323 323 323 322 322 322
340 344 347 347 346 344 342 338 334 329 322 327 329 329 332 332 331 332 332 332 332 330 329 330 330 329 327 327 326 326 326 323 321 322 322 320 318 317 317 316 317 315 314
343 346 348 350 350 347 346 343 339 335 327 327 328 329 330 333 330 331 324 331 331 331 329 327 329 329 328 321 322 325 324 321 321 317 318 317 316 316 317 318 317 318 320
350 351 352 352 352 351 350 348 345 340 334 328 329 328 328 334 333 325 328 330 332 331 326 327 328 327 321 324 326 326 323 323 323 319 317 318 318 320 319 318 319 320 320
353 353 355 356 357 356 354 353 348 343 335 331 329 328 327 328 333 324 329 331 331 327 326 327 328 322 325 324 326 326 324 322 321 320 318 318 319 320 319 319 319 317 316
355 356 356 357 357 356 355 351 348 343 337 332 330 330 330 330 330 325 328 327 327 327 328 327 326 323 323 324 325 325 324 321 322 321 320 320 319 319 318 312 311 315 317
356 357 358 358 356 354 353 350 346 343 338 330 331 330 331 329 328 326 328 326 327 328 327 325 323 323 323 323 323 320 321 321 322 321 317 315 312 311 311 310 314 316 318

GFSMA_850_thetae_024.txt.gz
Theta_e
347 346 347 344 345 344 343 342 343 345 340 340 339 339 336 336 336 335 335 335 336 336 335 339 342 333 329 326 333 330 325 322 324 327 334 333 330 325 329 329 328 327 333
345 346 346 344 344 343 344 344 343 342 340 341 343 338 336 336 335 336 337 336 335 337 334 337 339 342 335 328 328 329 328 325 323 328 336 334 331 325 326 332 327 325 324
347 346 343 344 346 344 344 343 344 342 342 340 338 335 335 334 336 337 332 336 337 338 336 334 337 338 339 341 333 331 339 335 325 324 323 333 330 327 335 335 329 323 323
348 348 346 344 344 348 348 344 344 341 342 339 336 335 334 334 338 338 337 337 336 337 336 338 334 335 337 339 340 341 333 333 335 333 330 325 323 325 329 329 330 327 329
348 349 344 344 346 346 348 343 342 342 341 333 337 334 335 339 338 337 337 335 336 339 339 340 337 335 336 337 338 339 341 341 337 335 336 335 332 328 328 327 326 330 332
348 349 347 347 345 346 345 344 343 341 332 336 334 336 337 338 338 338 339 336 336 337 340 339 339 340 340 332 335 337 339 341 341 341 338 337 334 333 332 332 333 333 330
348 348 348 344 344 345 344 343 343 337 335 335 335 335 336 337 338 339 337 335 335 333 336 335 338 338 343 340 336 335 337 339 340 341 341 341 341 341 340 339 337 334 332
350 349 345 344 345 345 344 342 342 324 335 336 336 332 337 337 338 337 335 332 332 334 335 334 334 333 332 335 336 331 334 337 339 339 339 340 340 340 340 340 341 340 340
347 348 347 345 343 343 344 343 340 330 337 336 334 335 339 338 338 335 334 332 330 330 329 327 326 325 325 330 326 322 323 327 334 336 337 337 337 338 338 338 338 338 338
348 349 349 345 342 343 345 345 338 331 336 335 334 333 336 337 339 335 333 334 331 331 330 327 328 328 325 326 325 322 322 319 316 316 316 318 320 324 328 332 335 336 338
349 350 349 344 340 343 347 343 329 322 336 336 334 331 330 333 331 336 336 333 332 331 330 330 328 329 330 329 329 327 327 326 323 322 320 318 316 316 315 316 318 320 323
350 349 347 336 341 342 343 335 328 326 327 335 333 335 332 331 333 332 333 332 331 331 331 330 329 329 330 330 330 330 328 327 325 327 326 324 323 319 317 317 316 316 316
347 350 347 343 342 340 334 326 325 327 322 332 334 334 334 332 332 332 331 330 331 331 331 330 330 329 329 330 330 331 329 328 328 328 328 324 325 323 321 319 318 317 318
347 347 346 346 338 336 330 319 324 322 320 323 330 335 335 333 332 332 331 330 330 329 329 329 331 330 331 331 330 330 328 328 329 329 327 323 324 325 326 326 326 325 323
348 346 345 335 330 331 326 318 321 322 320 319 318 326 333 332 333 331 331 331 332 331 330 328 330 330 331 330 331 330 328 329 328 326 326 325 324 325 326 327 327 326 324
349 348 342 340 344 336 336 325 319 322 319 323 325 324 324 332 334 333 332 331 331 330 328 329 331 330 329 329 329 328 327 327 326 325 327 327 327 325 325 326 326 326 326
351 349 348 342 345 345 344 341 326 321 320 322 327 330 326 327 329 333 332 331 331 331 332 331 331 330 329 328 328 327 325 325 326 325 326 325 328 326 326 325 324 325 325
351 349 349 344 345 346 345 343 340 324 321 320 328 330 330 328 329 329 330 331 332 331 331 330 329 329 330 329 330 326 327 328 328 326 326 327 328 327 325 325 325 325 325
348 351 350 346 344 344 344 343 341 338 326 321 326 332 330 332 332 332 330 327 330 332 331 332 332 329 328 328 328 329 328 327 328 327 327 325 323 323 324 325 325 324 323
346 348 349 349 347 346 344 343 341 340 337 328 322 331 330 333 333 331 331 328 332 330 328 330 329 330 329 329 328 328 327 327 325 323 320 321 322 322 321 322 319 318 319
340 344 349 349 348 348 347 346 344 342 341 336 327 326 328 329 332 334 330 331 332 326 325 331 326 329 327 328 328 326 322 325 322 320 320 318 318 317 316 315 315 317 318
336 338 341 341 346 348 346 346 346 345 343 341 335 325 327 329 329 334 332 332 327 324 330 332 328 327 326 327 327 322 326 324 322 319 320 320 318 318 318 318 317 317 317
336 338 341 342 347 349 347 349 350 348 346 343 340 333 327 329 329 332 333 332 328 327 329 331 325 326 327 328 323 325 324 324 325 323 320 320 319 319 318 317 317 317 316
342 341 343 343 344 345 346 350 352 351 348 347 343 338 331 329 329 329 331 333 328 326 329 325 327 328 328 325 325 324 325 324 323 322 321 322 321 319 316 315 312 310 309
348 347 345 347 349 350 352 353 355 352 350 347 344 338 334 328 328 329 331 331 325 328 327 328 329 328 327 323 323 324 323 321 321 321 320 318 315 314 312 311 310 309 314
349 351 350 351 353 355 355 355 357 355 350 345 343 339 334 329 330 329 331 328 327 327 326 327 327 324 324 324 323 322 319 322 321 316 315 313 313 311 309 309 309 311 315

GFSMA_850_thetae_027.txt.gz
Theta_e
346 346 346 344 344 343 342 343 343 342 339 339 337 338 335 334 336 335 335 335 334 334 336 340 339 329 325 328 335 327 331 323 327 327 328 332 328 325 326 328 327 327 330
345 346 344 344 343 342 343 342 343 341 339 340 343 336 335 335 334 336 336 335 334 335 333 337 339 341 332 327 330 335 329 325 322 323 329 333 332 328 325 332 334 330 329
346 346 345 346 345 342 342 342 344 343 340 340 338 334 335 334 335 335 333 337 336 336 334 334 337 338 341 339 328 334 334 330 326 323 324 331 334 331 327 327 330 326 323
347 347 347 345 345 344 348 346 344 343 342 340 334 334 333 334 336 337 336 337 335 338 335 337 334 337 338 338 340 338 333 337 335 331 326 323 325 328 323 333 334 333 327
348 349 347 343 343 344 346 347 342 341 342 340 335 331 333 338 338 336 334 335 335 337 337 339 338 335 335 336 338 339 340 338 335 336 336 334 329 325 325 328 328 326 328
348 348 348 346 345 345 345 342 343 340 337 332 334 335 337 337 338 338 339 335 335 337 340 337 334 338 339 333 333 336 338 340 341 341 336 335 336 336 334 333 332 332 332
348 348 348 348 346 343 345 342 343 341 330 336 334 335 337 337 338 336 337 335 334 334 335 333 337 336 339 340 336 334 335 337 339 340 341 341 340 340 339 338 337 335 333
348 348 349 347 345 345 344 341 341 338 332 334 334 333 337 336 336 338 336 333 330 331 332 333 331 329 331 335 335 331 331 335 338 338 339 339 340 340 340 340 340 340 340
346 350 348 347 345 344 343 343 341 329 333 335 332 333 337 336 337 336 334 331 330 330 328 327 327 324 326 329 324 319 320 323 330 333 335 337 338 337 337 337 338 338 338
346 346 347 348 346 343 342 342 343 335 334 336 333 335 337 338 337 333 332 331 330 330 330 329 328 328 327 326 325 325 322 323 320 318 316 315 316 317 320 324 328 331 334
345 346 348 349 347 343 341 344 343 328 335 334 331 333 333 336 337 336 333 332 331 330 330 330 330 329 330 330 330 327 327 325 324 326 325 325 322 321 317 316 316 317 318
348 348 349 350 345 342 341 341 340 330 325 334 335 334 334 331 330 335 335 335 334 332 331 330 330 329 330 330 330 330 329 328 328 328 328 326 323 323 321 318 317 317 317
350 347 349 350 343 336 338 339 333 326 323 323 331 333 336 332 332 332 332 331 330 330 331 331 330 330 329 329 329 329 330 328 328 328 328 326 324 324 324 324 324 323 321
348 345 345 349 346 341 335 332 325 324 327 323 325 332 333 334 333 332 331 331 330 330 330 329 329 330 331 329 331 328 328 328 328 329 326 326 324 325 325 326 327 326 325
345 344 346 347 346 343 335 330 325 321 321 319 320 326 331 334 333 333 332 331 330 331 331 329 329 330 331 331 330 329 328 328 328 326 326 326 327 326 325 326 327 326 326
346 345 347 347 346 337 332 327 323 319 322 320 319 320 320 324 333 334 332 331 331 331 330 329 329 331 330 329 328 328 327 328 327 326 325 325 326 326 327 326 325 324 325
344 347 348 347 341 338 334 332 335 324 320 321 320 323 324 325 326 331 333 332 331 331 331 331 331 331 331 329 329 329 328 326 327 327 327 326 326 326 328 327 326 324 324
343 348 349 348 347 343 343 343 343 341 332 322 321 325 329 328 326 330 330 332 332 332 331 331 331 330 330 330 329 329 329 328 328 328 328 327 327 328 327 326 324 325 325
343 345 349 349 348 347 343 344 344 344 342 336 323 321 328 330 330 330 330 331 331 329 331 332 330 331 331 330 329 329 328 328 328 327 326 326 322 321 321 323 323 322 323
340 342 347 348 349 349 347 343 344 344 343 342 336 327 322 330 329 331 333 333 332 331 333 332 328 328 330 328 328 327 327 328 326 323 323 320 320 319 318 317 317 316 316
336 337 344 348 348 349 349 347 345 344 344 343 342 338 329 326 329 329 332 334 332 330 333 330 325 324 330 327 327 327 327 321 322 322 321 319 318 319 318 317 317 316 316
338 335 336 339 344 347 347 349 348 347 347 346 344 341 337 330 329 329 329 333 333 332 332 329 324 327 330 328 326 327 324 322 326 323 323 322 321 320 320 319 318 316 315
346 340 337 337 337 338 342 346 347 348 349 348 346 343 341 339 329 329 329 330 333 333 330 328 328 329 328 326 327 328 325 327 324 324 324 322 321 320 320 319 316 315 313
345 343 340 338 337 337 338 340 343 350 352 351 347 345 344 342 336 327 329 328 331 332 332 328 328 327 328 328 328 327 325 324 324 323 320 321 320 319 316 315 313 312 310
348 343 342 342 338 336 335 339 346 352 353 351 350 348 346 342 338 332 329 329 329 329 329 326 327 327 327 327 326 324 324 325 322 320 321 317 315 315 314 312 310 309 310
348 348 346 343 341 339 340 347 351 353 355 354 352 348 343 343 338 333 330 329 329 331 326 328 327 326 326 324 323 321 321 319 320 317 317 314 314 311 309 309 309 310 310

GFSMA_850_thetae_030.txt.gz
Theta_e
345 344 345 344 343 342 342 343 342 341 339 337 336 336 336 334 335 335 335 334 334 334 338 340 338 328 331 332 333 327 326 325 326 329 327 332 333 325 325 326 327 326 328
343 345 344 344 343 342 342 342 342 343 338 340 338 336 332 335 334 336 336 335 334 335 333 338 339 339 332 332 330 337 330 323 322 328 326 330 333 331 325 327 331 331 329
345 346 344 344 344 343 340 341 342 342 339 341 339 330 333 333 335 334 335 336 336 335 333 333 338 339 339 334 334 332 334 328 325 323 322 332 335 331 331 324 327 327 324
346 346 345 346 345 344 343 344 345 342 342 341 337 333 332 333 335 334 336 336 335 337 336 335 334 337 338 339 340 335 333 335 335 333 325 323 322 327 329 323 332 334 333
346 347 348 347 344 344 345 344 344 341 341 338 336 333 332 336 335 334 334 335 332 336 337 339 337 335 334 334 337 339 340 335 334 333 335 334 331 326 323 324 327 328 326
346 347 348 348 345 345 345 346 342 342 338 335 332 332 335 336 336 337 337 334 335 337 339 335 337 338 338 338 332 334 337 339 340 339 337 335 335 336 332 332 331 331 332
346 347 348 348 347 345 343 343 341 341 339 334 333 335 337 337 336 334 336 333 334 333 334 334 338 336 338 338 335 334 333 335 337 339 340 340 339 338 336 334 334 333 335
347 348 348 348 348 344 343 343 339 339 335 334 334 333 336 336 337 337 337 333 331 329 329 327 328 326 329 334 334 330 328 332 335 337 338 339 339 339 339 339 339 340 340
346 346 348 349 349 346 343 343 343 341 324 332 334 333 336 336 336 336 335 332 332 328 328 328 325 323 326 325 321 319 318 320 326 328 330 331 333 334 336 336 337 337 338
346 344 347 349 349 347 344 342 342 342 329 333 334 332 335 337 336 334 334 332 330 330 329 329 329 328 326 328 326 325 325 323 321 321 322 321 319 317 315 316 318 320 323
345 344 347 348 347 347 345 341 342 342 329 333 335 333 333 336 337 335 334 333 332 330 330 330 329 329 329 329 329 327 327 323 326 327 327 326 324 321 321 318 317 316 316
345 343 346 347 348 348 345 341 342 343 327 331 334 332 332 332 334 336 335 334 333 332 331 330 330 330 329 329 329 329 329 328 328 328 328 326 323 322 323 322 321 319 318
345 345 346 346 347 348 339 339 341 339 329 322 330 334 333 334 330 331 331 332 334 332 330 330 330 330 330 329 329 328 328 329 328 328 328 325 324 324 324 324 326 326 325
342 345 347 346 346 348 340 339 339 331 327 325 323 332 333 334 333 332 332 331 331 330 330 330 330 330 328 330 329 329 329 328 328 328 328 325 326 326 325 325 326 326 325
342 348 348 345 343 347 346 340 336 330 325 325 323 323 328 333 334 333 332 331 331 330 330 331 329 329 329 330 331 330 330 328 328 327 326 325 325 326 326 326 325 324 324
345 341 348 343 345 346 347 343 337 333 325 324 321 320 321 325 327 332 332 332 331 331 330 330 329 329 331 329 328 328 328 328 327 326 326 326 326 325 325 325 327 326 325
343 341 347 342 344 346 347 342 335 334 327 322 323 320 321 321 321 324 332 334 333 331 331 331 331 331 330 330 329 329 330 329 328 327 328 328 328 327 325 326 327 327 327
341 342 344 342 345 347 346 337 331 330 334 325 321 322 321 326 327 326 325 330 332 332 332 331 331 331 330 330 330 328 329 329 328 328 328 328 327 327 326 325 325 324 322
346 340 342 341 345 346 346 341 341 341 342 342 337 325 322 324 329 329 327 330 331 331 331 328 331 331 330 331 329 328 328 326 327 328 328 327 324 322 320 320 320 319 318
349 339 340 339 342 344 345 345 344 342 344 344 343 341 332 324 324 330 330 330 331 331 331 332 332 333 329 328 329 329 327 327 326 321 322 324 321 320 318 318 318 317 316
348 345 337 341 339 343 342 344 347 346 344 344 344 344 342 335 328 327 332 331 333 333 331 330 332 332 329 324 326 330 328 326 326 321 323 322 321 322 321 319 319 319 318
348 348 342 337 340 339 339 341 345 348 347 346 345 345 344 341 337 331 329 331 330 332 333 331 331 332 326 326 329 326 326 327 326 323 322 320 322 321 320 319 320 320 317
347 348 348 342 337 338 339 341 344 347 348 349 348 347 347 343 342 339 333 331 332 330 332 332 332 330 327 327 327 328 328 327 325 323 324 322 321 319 319 319 317 316 315
346 346 347 347 344 340 341 341 341 344 347 349 348 348 348 346 344 343 339 333 332 329 331 332 331 329 327 328 328 328 327 326 323 323 324 320 320 319 316 316 316 313 309
346 345 345 347 347 345 340 339 341 343 346 348 347 352 350 347 345 343 340 336 329 329 330 330 330 326 327 327 327 326 324 323 323 321 319 319 316 315 314 314 311 308 308
346 347 347 346 345 345 344 344 340 342 346 346 348 353 352 349 345 344 341 338 332 329 329 330 327 328 328 326 326 322 319 318 319 319 317 315 314 312 310 309 307 307 307

GFSMA_850_thetae_033.txt.gz
Theta_e
344 343 344 343 342 341 341 342 342 342 339 337 337 334 334 334 334 335 335 334 334 335 340 342 337 327 330 333 332 326 326 327 328 328 329 333 333 328 326 326 327 328 327
344 345 345 343 343 342 341 341 340 341 338 339 336 334 333 334 334 336 337 334 334 334 334 338 340 336 331 333 331 334 333 328 324 331 330 328 333 331 327 325 329 331 329
344 345 345 343 343 343 343 341 342 342 340 340 339 333 331 333 335 334 334 336 339 334 334 333 338 339 336 332 336 330 335 331 327 323 324 326 334 334 329 327 324 327 326
345 346 345 346 344 344 342 343 344 343 341 342 336 334 332 333 333 333 336 334 336 339 339 333 334 337 338 339 339 336 333 334 334 333 327 324 327 324 331 326 324 332 332
345 345 347 347 345 344 343 344 346 342 341 338 335 336 332 333 332 334 334 334 333 337 340 338 336 335 334 334 336 339 339 334 334 335 333 335 334 330 325 329 325 327 327
347 346 347 347 347 345 345 345 344 342 338 336 332 332 333 335 335 336 335 335 336 338 339 337 337 340 336 338 333 333 337 339 339 338 338 337 335 335 336 334 332 331 331
347 346 347 348 348 346 344 343 342 342 340 332 333 335 337 335 337 337 333 334 333 335 333 333 337 335 337 337 334 333 333 333 334 337 339 340 340 339 337 338 337 335 335
346 346 347 347 348 348 345 343 342 339 340 332 334 336 338 337 334 336 337 332 330 334 330 326 325 325 328 333 331 327 327 330 334 335 338 339 338 338 339 338 339 339 339
346 347 346 347 349 349 347 343 343 343 341 327 334 336 337 338 338 336 337 333 329 328 328 328 326 325 324 323 320 318 318 320 322 323 324 324 326 328 329 331 333 334 335
347 346 346 346 348 349 348 346 343 342 342 332 333 334 333 337 337 337 335 334 330 329 329 329 329 327 328 326 325 325 323 322 325 326 326 325 323 321 320 317 316 316 317
347 347 345 345 347 346 346 347 341 341 342 331 334 334 332 335 337 337 337 336 332 330 330 330 329 329 329 329 329 328 325 326 327 327 327 325 324 322 321 321 319 318 317
346 345 346 344 347 348 347 348 342 341 342 329 332 334 333 335 336 338 337 336 336 334 331 330 330 329 329 329 330 330 330 329 328 328 328 325 324 323 322 323 323 323 322
343 343 345 343 345 345 347 348 341 341 341 328 327 332 334 333 332 331 333 335 335 334 333 331 330 330 330 329 328 328 328 329 329 328 328 326 324 325 325 325 325 324 324
343 342 343 342 342 346 346 348 336 339 338 329 322 324 331 331 333 332 331 334 334 333 331 331 329 329 330 330 328 330 328 329 328 329 328 326 324 325 326 326 326 325 324
347 343 343 344 344 345 346 348 339 337 333 327 325 323 327 331 331 332 332 332 333 332 332 332 331 329 329 329 330 330 330 330 329 328 328 326 324 325 324 324 325 325 325
348 347 344 342 344 345 344 347 346 338 333 328 326 324 322 322 327 329 332 332 331 332 332 332 331 329 328 330 330 329 328 328 329 328 326 325 325 326 327 327 326 325 326
348 348 346 343 347 342 343 346 347 342 333 329 324 323 321 320 322 324 325 328 331 332 333 333 331 330 331 330 330 329 329 329 329 328 328 328 328 328 328 326 325 325 326
347 348 345 343 341 345 341 345 346 343 332 328 323 322 322 321 322 323 324 324 328 331 333 334 334 331 331 330 330 330 329 329 329 330 328 328 328 327 327 325 323 320 320
346 347 347 342 341 344 340 344 346 339 330 328 332 326 322 322 321 325 328 328 325 329 330 334 333 329 331 331 331 330 329 328 328 327 327 327 326 322 321 319 319 318 317
346 346 348 343 340 341 339 342 345 338 337 334 339 341 340 332 325 323 327 330 329 329 330 332 334 335 332 333 330 328 329 327 329 327 327 324 322 323 321 320 320 319 318
345 345 347 348 339 340 339 339 344 343 341 341 342 343 343 342 339 329 325 328 331 331 332 334 335 334 333 333 332 329 330 329 328 326 327 327 326 325 325 324 322 320 319
344 345 346 347 347 336 336 336 340 343 343 344 342 342 344 344 343 339 332 329 330 333 332 335 335 334 334 332 330 331 329 327 329 330 326 327 327 325 326 325 322 319 318
344 345 345 346 347 343 334 335 335 342 344 344 346 345 345 345 345 344 341 338 331 332 333 330 333 333 333 330 329 326 328 329 330 329 324 326 327 326 323 322 318 317 316
343 344 345 345 346 346 338 333 336 340 343 345 347 348 348 348 347 346 344 341 337 332 333 331 331 332 331 330 327 328 327 327 325 326 324 325 323 323 320 319 317 314 312
344 344 345 346 344 344 344 343 338 338 342 346 347 347 349 349 348 348 345 343 340 337 334 330 331 332 331 327 327 327 326 328 327 325 323 322 320 319 317 316 314 310 306
344 344 344 345 345 344 342 342 346 345 341 342 343 345 346 349 348 350 346 343 341 339 334 329 331 330 327 326 328 326 327 326 323 322 321 318 318 317 315 311 312 311 309

GFSMA_850_thetae_036.txt.gz
Theta_e
352 351 350 350 349 344 344 347 346 344 346 343 341 339 336 337 338 339 341 333 333 336 341 340 330 328 332 333 331 329 328 325 327 334 331 334 334 333 327 326 326 328 326
348 348 351 349 349 350 351 344 346 344 344 344 340 339 336 337 340 339 339 336 334 333 336 339 340 332 335 332 332 330 329 327 325 331 334 329 332 333 330 326 328 330 332
344 344 348 350 349 345 344 347 342 344 344 341 341 337 336 337 338 340 338 340 340 335 333 336 338 340 338 334 334 331 336 330 328 323 328 324 329 335 333 330 327 326 328
344 345 352 350 352 346 347 346 347 347 344 341 336 339 336 337 337 338 337 339 339 342 339 333 336 338 339 338 337 334 333 331 331 334 329 325 324 329 327 333 330 328 333
345 345 352 351 348 351 349 349 348 345 341 340 339 338 338 338 339 336 338 339 341 341 342 335 335 335 334 335 337 339 339 334 334 335 335 334 335 334 330 325 327 325 327
345 345 352 347 349 351 350 350 348 344 340 337 334 336 339 338 340 339 337 337 340 343 342 342 340 341 336 339 334 334 337 339 339 338 336 337 337 336 336 336 335 333 332
346 347 352 351 345 349 350 350 347 346 341 337 337 337 338 338 340 337 337 339 337 339 339 340 343 340 342 335 334 333 332 333 335 336 338 340 340 340 340 337 337 336 336
346 346 347 354 353 352 347 349 345 344 342 336 338 339 338 336 336 338 340 338 338 336 336 336 337 339 339 342 335 327 327 329 333 335 337 338 339 339 339 339 338 336 335
347 346 345 349 353 348 352 349 347 345 343 337 335 340 337 337 335 337 339 337 338 337 335 335 337 338 336 329 328 319 318 321 324 324 322 322 322 322 323 327 331 333 334
349 347 346 346 345 353 353 350 349 346 342 339 338 337 337 339 337 337 337 340 338 338 338 336 336 336 333 330 327 325 322 322 324 325 325 325 324 322 321 320 317 316 316
348 352 348 346 346 345 348 347 347 342 346 339 338 338 338 337 338 339 338 338 339 337 338 337 336 336 336 334 331 327 324 327 327 327 327 325 323 322 321 322 322 320 319
352 349 353 346 345 348 348 349 347 342 343 340 338 338 336 336 336 338 338 338 338 338 337 336 336 335 336 335 333 330 330 329 329 329 328 326 324 323 324 324 323 324 325
350 350 348 345 349 345 347 347 347 344 338 339 325 339 338 337 336 335 337 337 336 336 337 336 336 335 335 335 335 332 329 329 329 329 329 328 326 324 324 325 325 325 324
350 351 352 344 344 344 344 345 349 343 342 334 327 328 339 339 337 335 334 335 334 335 335 334 335 334 334 335 335 334 332 330 328 328 329 329 327 324 324 324 325 325 325
352 353 352 344 349 342 341 344 348 342 339 330 327 322 327 338 338 337 336 335 334 335 335 336 333 334 334 335 335 330 331 334 331 330 329 328 327 325 325 326 325 325 325
351 353 353 349 351 349 343 343 349 348 334 329 329 326 322 336 338 337 337 336 335 334 333 334 335 334 334 334 334 329 335 330 328 328 329 328 326 325 326 327 327 327 324
349 348 349 347 350 352 348 341 345 351 338 330 325 326 322 325 336 337 337 337 336 335 334 333 335 335 331 330 334 332 333 333 334 332 329 328 328 328 328 328 328 327 325
346 347 348 348 347 348 352 342 339 349 343 337 328 326 323 325 321 328 338 336 336 336 335 336 336 336 335 335 336 332 334 333 333 332 330 328 327 328 328 325 322 320 318
346 346 346 348 347 346 346 346 338 340 344 342 335 328 325 323 322 331 330 336 338 337 336 335 335 337 335 336 336 334 336 334 333 331 329 328 327 326 324 321 320 319 319
345 345 346 346 348 344 340 340 339 338 342 344 338 332 327 326 322 322 323 323 336 336 338 337 336 335 336 336 336 334 334 334 333 333 331 328 328 327 323 321 320 321 321
343 345 345 346 346 348 344 337 335 335 339 343 340 332 329 335 338 337 329 328 334 335 336 337 337 336 336 335 335 335 334 333 333 334 332 332 330 331 328 327 327 327 325
343 344 345 345 346 347 349 338 332 333 334 340 342 337 338 340 341 342 341 334 331 328 329 336 337 336 336 336 335 334 333 334 332 331 334 332 330 329 329 328 326 325 323
344 344 344 345 345 345 346 342 332 331 337 339 340 342 345 347 342 343 344 342 336 333 330 338 338 337 337 338 336 336 335 333 332 332 331 331 329 328 327 325 323 321 319
345 344 344 344 345 345 345 345 345 337 338 344 345 343 345 346 345 343 344 345 343 340 339 333 338 339 338 338 337 335 334 331 331 332 330 330 327 323 323 322 320 318 317
355 354 355 349 344 345 344 344 345 347 341 339 342 343 344 344 346 347 347 346 345 343 341 338 332 336 332 336 334 334 333 333 331 330 328 328 324 321 321 320 317 315 313
357 357 357 352 347 345 345 343 343 346 348 346 344 345 343 343 344 347 348 348 346 346 343 341 335 334 332 334 332 328 332 331 331 328 326 324 320 320 319 318 315 314 313

GFSMA_850_thetae_042.txt.gz
Theta_e
350 349 349 349 350 349 348 349 345 346 342 342 338 339 337 339 342 341 339 330 331 338 327 324 327 329 332 333 329 329 325 325 331 334 333 333 332 332 328 325 326 327 328
351 350 349 348 350 347 344 347 345 347 347 343 336 336 338 337 336 339 340 332 329 336 339 334 327 326 330 330 328 328 326 327 326 328 329 329 332 333 332 330 326 327 330
351 350 351 350 350 349 346 346 345 342 344 344 340 338 339 338 338 339 341 342 341 335 332 339 339 331 329 330 330 332 331 331 326 324 326 333 327 329 334 335 332 330 328
349 345 344 348 352 348 345 345 347 347 346 338 339 340 339 337 337 339 342 344 342 341 335 332 337 339 337 334 332 335 333 334 332 328 329 325 323 323 327 326 326 327 329
343 346 351 340 349 350 347 346 346 345 338 341 339 340 338 337 338 338 337 340 340 341 341 339 336 334 333 336 337 338 336 334 333 333 335 335 335 333 333 332 329 326 326
344 344 351 350 350 350 349 345 343 339 340 338 340 338 337 339 339 337 337 341 339 341 341 342 343 341 336 336 336 332 337 339 338 336 335 336 335 335 335 336 336 335 334
347 344 347 354 347 346 349 346 345 342 342 337 337 340 336 339 338 339 339 338 337 338 340 339 342 344 342 340 336 332 331 332 333 333 334 335 339 339 340 340 339 338 338
348 347 346 352 351 350 347 346 347 345 343 339 341 338 339 339 338 339 339 339 339 337 336 338 338 340 342 340 330 327 327 327 328 330 332 333 336 336 336 337 337 337 336
350 348 350 349 352 352 349 347 339 347 342 340 343 338 337 338 339 336 337 336 336 336 334 336 335 339 337 332 327 320 318 320 321 320 320 320 321 320 319 318 317 316 316
346 354 350 347 346 347 352 349 348 346 346 341 336 342 343 338 337 339 338 339 337 338 336 338 337 334 330 332 326 325 322 321 322 323 324 323 322 321 321 320 320 320 320
352 349 351 349 346 345 353 351 352 343 343 346 341 338 337 339 340 340 338 340 337 339 339 338 338 338 337 333 332 329 329 327 328 329 328 327 325 321 320 322 323 323 322
354 351 354 353 349 345 352 352 349 343 346 343 342 340 338 335 338 338 340 339 340 339 340 339 338 337 338 337 335 335 332 330 330 330 330 329 328 325 321 322 323 322 323
351 353 349 354 354 347 347 352 346 344 341 344 341 340 339 339 339 339 340 340 341 340 339 338 338 338 337 337 338 338 337 336 330 329 329 329 329 328 327 323 323 323 323
352 351 350 349 347 346 347 350 346 349 346 337 329 340 341 340 339 339 338 338 338 338 341 338 338 338 337 337 337 337 337 336 335 332 330 329 329 328 328 327 325 324 325
352 350 349 350 350 350 347 349 351 346 350 347 332 325 336 342 341 339 338 337 337 338 338 338 336 337 336 336 336 336 336 335 334 336 333 331 329 329 328 328 327 326 326
350 353 350 350 350 350 348 353 348 349 351 349 340 329 325 333 341 341 339 338 337 336 336 339 338 337 336 336 336 337 336 334 337 332 330 330 331 328 328 328 328 328 328
358 349 356 352 351 350 346 349 348 352 346 348 346 337 330 329 333 341 340 339 338 337 336 334 338 337 337 336 335 333 334 332 334 335 335 334 334 332 329 328 327 327 328
350 356 351 356 354 353 343 345 343 347 353 350 347 342 339 332 329 335 341 340 338 338 338 337 336 339 339 339 338 335 331 336 338 336 335 334 333 332 330 327 328 327 325
346 347 351 352 353 353 351 346 343 344 343 353 351 345 338 334 328 325 331 339 340 339 338 338 337 337 338 338 339 338 336 336 334 334 335 335 333 333 330 330 328 327 328
344 345 346 350 353 350 349 348 348 346 341 345 354 350 339 336 330 327 325 324 332 341 338 337 337 336 337 339 339 338 337 337 337 338 337 335 334 333 332 331 330 329 328
344 343 344 347 350 351 349 348 347 348 346 340 339 346 337 331 333 334 330 327 325 330 340 340 339 339 338 338 338 338 338 337 337 336 336 334 335 334 333 331 331 330 329
349 345 342 341 344 345 344 345 345 346 347 347 340 336 339 335 333 335 337 333 328 325 325 331 339 339 340 340 339 338 337 337 337 336 335 335 333 332 332 332 331 326 325
354 351 345 340 338 340 341 343 344 346 348 349 346 339 339 341 341 338 339 340 334 329 330 334 333 337 339 339 340 340 339 338 336 335 335 335 333 334 332 329 326 325 323
357 352 349 345 340 337 339 341 342 344 346 347 348 346 342 340 343 341 337 341 339 336 332 337 338 338 338 339 340 340 340 339 337 333 333 333 331 330 331 329 325 323 322
360 358 354 349 345 339 338 340 342 347 349 350 348 348 347 346 342 347 346 334 336 339 338 336 339 340 340 340 336 337 340 339 337 332 331 333 332 330 330 326 322 322 321
359 360 357 356 353 347 344 344 348 352 351 351 352 348 349 349 351 350 350 349 345 338 339 340 341 340 340 341 338 338 340 337 334 334 332 333 333 330 327 324 321 320 319

GFSMA_850_thetae_045.txt.gz
Theta_e
348 349 348 348 344 346 345 344 345 345 343 340 340 340 340 342 340 339 332 330 335 330 327 325 330 330 333 327 326 323 321 329 331 331 330 331 331 329 326 325 325 327 330
348 348 348 348 347 345 346 346 343 343 339 338 338 339 340 337 337 338 339 332 333 340 338 326 325 327 329 327 328 332 326 324 325 327 328 328 332 331 331 329 327 325 326
347 347 350 348 346 346 344 344 345 341 339 342 336 338 340 338 338 337 342 342 340 332 335 339 336 326 324 327 328 325 324 324 323 322 328 331 326 327 333 334 333 330 328
347 347 348 344 346 349 345 343 346 344 342 336 338 339 337 336 337 339 340 341 341 339 331 333 336 338 333 332 327 328 331 332 330 326 324 324 324 323 325 332 325 327 327
341 344 345 345 349 348 346 346 346 345 340 337 338 339 338 337 338 339 338 340 340 339 338 337 336 333 334 337 336 338 335 332 331 331 333 335 334 334 333 334 334 332 331
345 342 347 348 346 348 346 344 342 340 339 339 339 339 339 337 337 339 338 340 338 341 340 339 340 340 334 334 335 334 335 338 338 336 334 334 335 335 335 336 337 336 336
348 344 345 351 347 350 347 342 340 340 337 339 339 336 338 338 338 338 340 339 339 339 338 338 340 339 340 338 336 333 330 330 332 334 335 335 336 338 339 339 339 339 339
346 346 344 350 347 349 348 344 343 343 339 338 341 337 337 338 340 339 339 339 338 336 337 336 335 336 340 336 329 327 326 327 329 329 330 332 335 335 335 335 336 334 329
345 345 345 346 349 351 349 346 345 345 340 340 338 338 338 340 338 338 339 337 337 336 335 335 332 329 332 334 324 320 319 321 321 320 320 321 321 321 320 319 318 318 317
344 344 347 347 351 349 349 349 343 347 342 340 340 339 339 337 339 336 337 336 338 336 336 337 337 336 336 330 326 325 322 321 323 324 324 323 322 320 320 320 320 320 320
346 348 346 350 345 348 347 350 347 343 344 341 336 341 341 339 341 340 338 339 338 338 338 338 338 338 338 336 333 330 329 329 329 329 329 326 326 321 320 320 321 322 322
345 349 351 351 350 346 345 351 350 348 340 343 341 340 336 339 340 340 339 338 339 338 339 338 337 338 337 337 337 337 336 335 331 330 330 329 328 327 323 322 322 323 323
345 350 353 350 349 348 343 350 351 347 341 341 342 339 339 336 337 339 337 340 340 339 339 339 338 338 337 336 337 337 337 336 336 333 330 329 329 328 328 327 325 324 324
346 346 349 351 348 345 347 344 350 347 339 335 339 340 339 339 339 339 339 338 340 340 339 339 339 338 338 337 336 336 336 337 336 335 334 332 330 329 328 328 328 326 326
348 350 352 351 350 349 347 344 341 344 342 342 332 330 336 338 338 338 337 338 337 338 339 340 338 338 337 337 336 336 336 335 333 332 332 332 331 329 328 328 328 327 328
347 352 354 352 350 349 349 349 344 343 345 342 338 335 327 338 340 339 337 334 336 337 337 336 338 337 336 336 336 336 336 336 332 330 330 331 333 333 332 329 328 328 327
349 349 352 353 351 349 349 349 342 346 345 346 348 342 335 328 340 341 341 338 335 333 333 335 336 338 337 336 336 335 335 335 333 333 335 335 334 333 332 330 329 328 327
347 349 348 350 354 353 350 350 344 338 345 344 344 346 340 334 330 336 340 340 339 336 334 331 333 337 338 337 337 337 338 335 329 334 336 336 334 333 332 330 329 327 325
338 347 354 352 351 353 354 353 352 340 335 338 341 344 344 345 334 331 333 338 339 339 337 336 334 336 339 338 337 338 338 336 333 331 333 333 334 333 332 331 330 328 328
338 341 346 352 352 352 350 350 350 350 345 338 337 335 337 345 340 336 329 329 338 339 338 337 335 336 336 338 339 338 338 337 335 335 335 336 335 334 332 332 330 330 329
342 342 343 344 347 350 350 349 349 348 348 347 343 337 333 330 331 333 335 330 327 337 337 336 337 336 335 334 335 336 339 337 337 336 336 335 336 334 334 333 329 331 331
342 346 346 346 345 345 346 346 345 346 346 347 345 344 342 336 334 332 330 330 332 330 327 333 329 332 331 332 335 337 338 338 338 337 336 335 335 334 333 331 332 332 328
347 346 347 345 345 344 344 345 344 345 346 345 344 342 341 343 341 337 335 334 333 335 335 332 327 326 327 329 335 339 338 339 338 337 337 335 335 335 332 333 331 328 326
355 353 350 348 346 340 339 341 344 347 348 345 343 343 344 343 343 342 340 339 343 343 339 342 337 330 326 328 334 338 340 340 338 338 336 336 335 334 330 331 330 329 321
359 358 357 356 353 347 344 343 343 346 351 349 348 346 346 347 346 347 348 347 344 341 341 345 342 342 332 333 333 340 342 341 339 338 338 336 332 331 330 330 330 327 321
358 358 358 357 357 355 356 356 353 354 352 349 355 354 354 352 352 353 352 352 351 347 346 345 344 345 344 337 337 339 339 340 340 340 339 335 332 331 331 331 328 322 321

GFSMA_850_thetae_048.txt.gz
Theta_e
346 347 344 344 345 343 342 342 341 341 340 340 339 339 341 342 339 332 329 333 333 327 330 330 328 327 323 323 326 327 328 332 331 331 331 331 330 329 325 325 325 327 330
346 346 346 344 345 343 345 342 343 343 342 340 337 337 337 340 338 337 339 333 338 337 329 325 327 329 332 327 329 327 325 323 327 331 330 331 331 330 331 329 328 325 324
344 346 346 347 344 344 345 343 340 339 340 338 339 339 339 338 338 341 340 341 338 332 338 336 328 324 328 328 326 325 324 324 324 323 328 331 329 326 331 333 333 332 328
339 345 347 344 346 346 344 343 340 341 338 338 339 339 336 337 338 340 340 339 337 332 331 337 338 337 329 329 328 329 330 330 329 326 324 325 323 323 323 329 329 324 324
340 342 344 345 344 345 343 343 344 342 338 337 339 339 337 337 338 338 339 338 339 337 336 334 335 333 335 338 334 336 335 332 330 331 331 335 334 335 333 334 335 335 334
344 342 347 343 346 345 345 343 342 339 340 338 339 339 338 338 337 337 340 339 340 340 339 337 339 337 333 333 334 334 334 337 336 336 335 334 334 336 335 336 337 338 337
347 345 345 345 347 347 347 345 341 340 338 339 340 339 339 339 337 338 339 339 338 336 334 335 339 336 339 335 333 333 331 330 333 334 336 336 335 336 338 338 339 339 339
346 346 343 347 344 348 346 342 338 340 339 339 337 338 338 338 340 337 338 339 339 336 335 334 333 335 339 334 323 325 325 327 329 330 331 331 333 332 332 331 330 325 320
347 345 344 343 347 349 347 345 343 342 337 337 339 335 337 338 340 340 339 340 337 335 334 334 336 334 333 328 323 320 319 320 320 320 320 321 321 321 320 320 319 319 318
348 345 345 344 349 349 349 348 343 344 338 338 339 337 337 338 338 338 339 339 337 337 336 337 337 337 336 331 327 327 323 323 324 325 325 323 321 319 319 320 320 320 320
345 344 345 345 347 348 348 349 341 345 343 339 340 338 337 337 338 336 337 337 337 338 337 337 338 338 336 336 333 335 334 330 329 329 328 326 324 320 319 320 321 322 322
344 344 347 345 347 346 347 347 346 342 345 340 336 340 339 337 338 340 338 338 337 337 338 338 338 337 337 336 336 337 336 336 334 330 329 329 328 327 326 323 323 323 324
344 344 345 349 347 346 343 345 349 348 345 341 339 340 336 337 339 339 339 338 339 338 338 339 339 338 338 337 336 336 336 336 336 334 331 330 329 328 328 328 327 326 325
344 344 345 349 351 348 347 343 345 347 348 344 342 340 338 336 336 338 339 338 339 340 339 339 339 339 338 337 337 336 336 336 336 334 333 333 331 329 329 328 328 327 327
342 344 345 345 349 350 348 347 343 344 348 345 335 341 338 338 339 339 338 338 338 338 338 338 339 339 338 337 337 336 335 335 335 332 330 331 331 329 330 328 328 327 327
343 344 346 348 350 350 349 347 346 342 343 343 344 338 333 336 338 338 338 337 337 338 337 337 338 339 338 337 337 336 335 335 336 333 329 330 331 333 333 332 331 330 328
340 345 346 348 352 352 350 350 349 348 343 340 343 343 334 328 334 335 335 335 334 336 335 335 337 337 337 337 336 336 335 335 335 333 329 334 334 334 333 332 330 328 327
337 344 347 348 352 352 353 351 349 349 346 338 340 342 341 340 332 330 337 337 337 336 334 329 331 334 334 336 337 336 336 337 337 333 330 332 335 334 333 332 330 328 326
335 339 347 347 348 350 350 352 351 349 350 339 335 339 335 338 340 336 330 336 338 338 338 337 335 333 333 334 337 337 337 337 337 334 331 332 333 333 333 332 330 329 328
334 334 337 345 346 347 349 349 351 352 350 347 342 334 333 335 338 338 339 332 331 335 338 339 339 337 336 334 336 337 337 337 338 337 334 333 334 334 334 333 331 330 330
333 334 335 338 342 348 350 350 350 349 348 347 347 346 343 337 333 333 337 340 343 335 334 339 340 339 338 337 336 335 336 336 337 337 336 334 334 334 334 334 333 332 332
332 334 337 337 337 339 346 351 352 351 350 350 349 347 346 346 344 340 335 333 335 337 343 335 336 340 338 337 336 337 336 337 338 338 337 336 335 335 335 334 333 331 332
336 335 335 338 340 340 341 342 344 347 348 348 348 348 346 344 343 342 341 340 339 334 334 336 340 336 332 331 331 333 335 334 334 336 338 337 336 336 335 334 332 330 331
351 348 344 341 340 339 341 344 346 348 349 348 347 347 347 344 344 343 343 343 342 341 340 338 340 330 330 336 337 333 330 332 334 337 339 338 337 337 335 335 333 330 330
356 356 356 355 354 352 350 349 351 352 352 350 350 349 347 346 344 344 347 348 347 346 347 346 345 344 342 341 341 343 337 338 338 338 339 339 338 337 336 335 331 329 328
356 356 357 356 356 357 357 357 358 358 355 354 354 351 351 350 352 354 355 355 353 350 353 352 352 351 351 348 346 347 346 337 338 338 339 339 338 336 335 333 331 329 325

GFSMA_850_thetae_051.txt.gz
Theta_e
344 342 344 342 342 343 343 342 342 340 338 338 339 339 342 340 334 330 331 334 325 331 329 327 326 322 324 326 329 328 329 332 330 331 331 330 330 330 326 326 325 326 328
346 344 343 345 344 344 342 343 342 342 338 337 336 338 338 338 335 335 334 336 333 330 328 329 329 330 330 325 325 324 323 327 328 331 328 331 331 329 332 331 331 329 327
345 345 345 343 342 342 343 343 343 344 342 337 337 338 337 337 338 339 340 336 334 337 337 328 326 327 329 327 325 328 326 325 324 324 326 333 329 325 327 331 331 329 330
344 344 346 344 343 343 343 341 340 340 341 337 335 336 337 338 339 341 339 337 333 331 336 339 337 332 327 328 328 328 329 328 328 328 325 327 325 326 326 326 330 332 329
342 342 342 343 344 342 343 341 343 343 337 337 338 337 336 336 339 340 338 339 335 335 335 333 334 334 335 337 337 333 335 333 332 331 331 332 335 335 335 333 333 334 335
342 341 345 343 344 343 342 343 341 339 336 337 339 337 337 338 336 338 340 338 339 340 335 338 338 337 334 333 333 333 333 336 337 335 336 334 334 335 337 336 338 338 338
346 344 344 344 344 346 344 343 341 339 339 338 339 338 337 338 338 338 338 338 337 336 335 337 338 336 337 332 330 333 330 329 331 333 334 334 334 333 335 337 337 338 336
347 347 344 345 345 345 345 344 340 339 338 339 339 338 340 338 339 337 338 339 338 336 334 332 331 334 337 328 321 324 324 326 326 327 328 327 328 327 324 322 321 318 317
346 347 345 343 347 344 344 342 339 341 338 339 337 337 337 338 339 337 337 339 338 336 335 335 336 332 329 325 323 319 319 319 319 319 320 321 321 320 320 320 319 319 319
345 346 345 344 345 346 345 346 345 343 339 337 338 334 335 336 339 339 338 338 338 336 335 336 337 336 334 327 329 326 323 324 326 326 324 323 320 318 318 319 319 319 319
345 345 345 344 344 347 347 348 345 343 342 336 338 337 337 337 337 336 335 337 336 337 337 336 337 337 336 335 335 335 334 330 328 329 326 325 322 319 319 319 320 321 322
344 344 343 345 345 346 347 347 348 342 345 340 339 338 337 337 336 337 336 336 337 337 338 337 338 337 337 336 335 336 336 336 335 331 329 329 327 327 326 324 323 323 324
344 344 343 344 346 346 345 347 347 344 342 344 340 336 339 338 337 337 339 339 338 338 338 338 338 338 337 337 336 335 335 335 335 335 333 330 329 328 328 327 327 327 326
344 344 343 344 346 348 345 345 345 347 347 342 342 339 338 336 336 338 337 338 337 339 339 338 339 338 339 337 337 336 335 334 334 334 332 332 332 330 329 329 328 327 327
344 344 344 343 344 349 350 347 345 342 347 345 345 341 340 336 336 337 336 338 338 338 338 338 337 337 338 338 337 337 336 335 334 335 333 329 331 332 330 330 329 329 327
340 344 344 344 344 345 348 347 345 344 342 344 345 339 336 337 336 336 338 338 338 338 337 337 337 337 337 338 338 337 336 336 335 335 335 330 329 329 331 333 332 331 330
336 339 341 342 345 347 349 349 348 347 346 342 342 341 338 333 333 336 338 338 337 337 335 333 336 336 336 336 336 337 336 336 335 335 335 335 331 332 334 334 332 331 329
337 337 340 342 345 347 349 351 350 349 348 347 345 341 341 341 333 328 333 334 334 334 334 331 331 331 332 334 335 336 336 336 336 336 336 335 331 333 334 334 332 332 329
336 337 339 340 343 344 349 352 352 352 350 349 348 344 336 339 340 337 331 329 333 336 338 337 335 335 336 334 332 332 334 337 336 336 337 335 331 331 334 334 333 331 329
336 335 336 338 341 344 344 347 349 350 350 349 349 349 344 336 334 337 338 339 337 332 333 338 338 336 337 337 337 336 334 335 336 336 336 337 334 332 333 333 333 331 330
337 334 334 334 335 340 345 346 346 347 349 348 347 347 345 344 342 340 334 331 333 338 342 338 334 333 333 336 336 333 335 334 334 336 336 337 337 335 333 333 334 333 332
337 336 334 333 333 333 334 338 344 347 347 346 347 346 346 346 346 346 346 344 341 337 336 339 339 341 336 334 331 331 335 337 337 334 336 335 337 337 335 334 334 334 333
338 335 333 333 333 334 335 334 335 339 344 347 348 347 347 346 346 347 347 346 346 346 344 344 342 341 338 332 339 340 336 334 336 334 336 335 334 336 337 336 335 335 334
342 340 338 336 334 333 334 337 338 339 340 341 343 344 345 345 346 346 348 349 347 346 347 347 347 345 344 343 344 343 342 344 341 338 337 337 336 334 337 337 336 335 334
349 350 349 348 348 346 344 342 341 343 344 345 346 347 347 347 347 348 349 349 348 344 346 347 348 348 350 351 351 352 351 347 344 345 343 338 336 335 337 336 336 335 334
353 354 355 355 355 356 356 356 357 356 356 356 356 355 355 355 355 355 356 355 353 351 354 353 354 355 355 356 356 356 352 344 342 340 344 341 338 337 336 329 333 336 335

GFSMA_850_thetae_057.txt.gz
Theta_e
338 339 341 342 342 342 342 340 338 337 337 339 340 339 338 334 332 335 339 330 332 328 326 324 328 329 330 330 330 328 331 332 330 331 330 333 333 330 333 332 332 330 327
342 342 342 343 343 341 342 341 338 336 336 336 339 338 338 336 334 335 340 329 335 329 329 327 326 325 323 324 326 325 330 328 328 329 332 332 329 326 325 327 329 325 325
343 342 343 342 343 342 341 339 339 337 337 333 337 337 338 337 337 335 335 335 338 337 331 326 326 329 330 326 327 329 326 324 324 323 323 328 327 325 325 326 328 333 334
344 343 343 343 342 343 340 340 342 340 337 337 338 337 337 339 338 337 335 333 333 342 339 337 335 334 333 337 327 328 329 327 328 330 329 329 334 334 334 334 334 333 334
344 346 345 343 341 342 337 339 340 339 338 337 336 335 337 339 339 338 337 336 336 335 333 334 334 334 334 336 338 336 335 335 333 332 330 331 333 332 334 335 336 337 338
343 344 342 343 344 341 341 340 338 341 338 338 340 336 337 338 339 339 338 338 337 335 337 338 337 338 334 334 336 335 333 332 335 336 337 337 337 336 335 333 335 337 337
341 342 345 344 344 340 339 342 340 340 339 338 338 337 337 336 337 339 339 338 337 336 336 336 336 334 335 331 328 333 331 329 328 328 329 329 329 329 330 330 329 327 320
345 344 343 345 343 343 341 341 341 339 338 338 339 339 340 338 337 338 337 337 337 336 336 334 332 332 332 324 320 322 322 322 323 324 323 321 320 319 319 319 318 318 318
345 346 345 345 345 345 343 342 339 340 339 338 338 339 340 339 337 336 336 337 337 336 335 335 335 332 327 325 323 320 319 320 321 323 322 321 319 318 318 318 318 319 319
345 346 346 346 344 345 342 342 341 339 337 338 338 337 337 337 337 339 337 337 336 336 336 336 336 335 329 330 329 327 326 326 327 325 323 323 320 318 318 319 319 320 322
344 344 345 346 345 343 344 344 345 342 340 339 338 337 334 335 336 339 339 340 337 337 337 337 337 337 336 334 333 332 332 331 329 328 328 327 326 325 323 323 323 324 324
343 343 344 345 345 344 344 345 345 346 341 343 337 337 337 339 340 338 339 339 338 338 337 338 337 337 337 336 335 334 334 334 334 333 332 330 328 328 327 326 326 326 326
343 342 342 343 343 343 344 346 346 345 346 343 342 340 338 339 338 337 337 341 340 338 337 337 337 338 338 337 336 335 335 334 333 333 333 332 331 330 329 328 328 327 327
339 339 338 339 343 343 345 345 346 347 346 344 340 344 339 338 338 338 339 339 341 342 337 337 337 338 338 338 338 337 336 335 335 334 333 333 332 330 329 330 330 329 329
340 334 334 336 341 343 346 347 347 345 343 345 346 341 339 340 335 337 338 336 339 340 340 341 337 335 336 337 337 337 338 337 336 336 335 334 334 334 331 329 330 330 331
341 336 331 337 341 342 344 345 347 349 347 345 343 346 344 341 340 339 338 337 337 337 339 340 336 333 332 333 334 335 336 337 337 337 336 336 335 335 335 333 330 330 331
343 340 334 334 340 341 342 343 344 346 348 347 346 342 342 343 344 338 337 337 336 337 337 339 336 331 330 330 330 330 330 330 331 334 335 336 336 335 335 335 334 331 331
343 343 338 333 337 340 342 343 344 344 346 346 344 345 343 341 340 340 339 337 336 335 335 331 330 330 329 329 330 332 332 333 334 333 331 333 335 336 335 335 335 335 332
343 344 341 335 333 335 338 342 344 345 346 346 347 348 347 348 347 345 339 338 340 340 340 338 333 333 332 332 331 330 329 329 330 332 334 334 334 333 335 335 336 335 334
343 344 343 337 334 332 333 338 343 345 346 346 345 347 348 348 348 346 346 343 337 334 335 336 335 338 337 332 328 327 329 329 332 333 334 334 335 334 334 334 335 335 335
343 344 344 343 337 335 333 333 338 342 345 345 345 345 346 344 342 342 343 341 342 344 343 345 347 344 344 345 343 342 343 342 341 342 340 341 341 340 340 336 335 334 335
344 344 344 344 344 339 332 331 331 335 336 338 341 341 341 341 339 340 341 343 346 346 346 347 351 351 349 348 348 348 350 349 349 348 347 349 350 350 349 347 345 337 336
344 344 344 345 344 342 336 331 330 331 331 332 333 334 334 335 335 337 338 340 342 345 347 348 349 349 347 347 349 351 353 353 353 352 351 351 351 351 351 351 350 348 342
344 344 344 344 344 341 337 333 331 331 331 331 330 330 330 331 332 333 335 338 339 340 341 342 344 344 347 349 352 354 355 355 355 354 353 349 353 350 349 351 350 348 346
344 343 343 343 342 338 336 334 335 336 334 331 331 331 332 332 333 334 335 337 339 341 343 345 345 348 352 355 356 356 356 355 356 353 353 350 352 352 352 350 350 349 346
343 343 341 339 339 338 338 337 338 339 337 334 333 332 333 334 335 337 340 343 347 351 354 356 357 358 357 356 355 355 353 354 354 355 354 352 353 352 348 349 347 349 349

GFSMA_850_thetae_060.txt.gz
Theta_e
349 347 347 348 347 348 345 345 344 344 341 347 347 346 344 343 343 340 341 330 328 328 333 329 336 335 334 330 330 329 333 332 330 330 329 332 329 327 328 330 329 326 325
350 348 348 348 347 348 346 346 344 342 343 344 346 346 345 344 344 345 341 334 331 329 328 327 325 329 324 325 326 325 332 328 327 328 330 330 329 326 324 324 330 332 333
343 349 349 349 347 347 344 347 346 342 338 340 344 346 345 344 343 344 345 345 341 335 328 328 328 330 329 326 327 328 326 324 324 324 324 326 332 330 333 334 334 333 333
343 345 344 348 349 348 346 345 337 341 339 340 342 342 343 343 344 344 344 345 344 344 340 338 334 332 333 338 330 332 334 331 330 331 330 331 332 333 334 334 336 336 338
345 348 348 350 342 347 345 345 343 343 340 341 341 342 343 342 342 342 342 343 344 344 343 336 334 333 333 335 338 337 335 336 337 335 334 333 335 336 336 336 335 337 338
344 345 351 346 343 346 346 346 346 343 343 343 340 342 342 342 341 340 341 340 341 343 344 345 343 344 332 330 333 334 333 332 331 330 334 333 333 332 331 332 334 334 330
343 342 351 346 344 347 346 348 347 344 337 337 342 341 340 342 344 341 340 340 340 340 340 341 340 340 341 329 328 332 330 329 328 328 327 325 324 324 322 320 320 318 317
342 346 350 347 345 348 349 343 343 344 345 341 343 340 339 339 340 338 339 341 342 341 342 342 340 340 336 339 334 320 320 321 321 320 320 320 320 319 319 319 319 318 318
345 346 344 348 343 345 349 345 343 344 343 344 341 343 338 339 336 336 340 341 343 343 342 343 342 340 339 340 331 329 321 323 324 323 322 321 318 317 317 317 318 318 319
345 345 346 345 344 346 349 344 345 345 343 342 342 339 338 339 337 338 339 342 342 343 344 343 342 343 340 341 335 329 327 326 326 325 324 324 323 321 321 321 322 323 324
345 349 345 345 343 349 350 347 344 343 341 341 341 340 340 339 338 340 340 341 341 341 342 343 341 341 342 342 341 336 331 330 329 328 327 327 327 326 325 324 324 324 324
350 345 346 344 344 343 345 348 349 342 347 344 342 341 339 339 340 341 341 342 341 341 341 342 342 342 341 342 340 335 332 332 331 331 331 330 329 328 328 327 326 326 326
348 350 343 343 347 343 349 344 344 349 345 346 342 342 341 342 342 341 341 341 341 342 341 341 341 343 342 343 343 338 334 334 333 332 331 331 331 330 329 329 329 328 328
346 348 351 348 341 348 345 346 351 351 352 347 343 344 344 342 343 342 342 342 340 340 341 338 343 343 343 343 343 338 338 337 336 335 335 334 333 333 332 330 329 330 329
347 348 349 351 350 349 351 351 351 353 352 346 351 344 345 344 344 341 342 342 341 342 341 343 342 344 341 343 342 336 337 337 337 337 337 336 335 335 334 334 334 330 330
344 346 345 346 348 349 351 349 353 353 353 352 351 352 351 347 347 346 345 343 342 341 340 340 341 341 342 337 339 333 332 332 332 333 335 336 336 336 336 335 335 335 334
343 342 342 337 342 349 350 346 349 353 354 354 354 353 352 351 350 348 347 345 344 343 342 340 340 342 338 331 330 332 331 331 333 331 331 331 332 334 335 336 336 335 335
343 342 343 340 333 342 350 350 347 352 353 354 354 353 353 352 345 343 349 349 345 344 344 340 341 342 341 339 332 331 332 340 340 339 337 330 330 333 333 332 333 335 335
345 343 343 343 337 334 344 346 342 348 351 353 353 354 354 354 354 352 353 350 349 351 351 350 348 347 346 347 347 345 343 342 337 340 339 334 330 332 334 334 334 334 334
345 344 343 343 341 335 341 346 348 341 344 351 352 354 355 355 355 355 355 355 352 350 349 349 348 347 346 345 345 346 347 347 345 344 344 344 344 344 343 343 339 335 335
344 344 344 343 344 341 342 339 344 346 344 347 351 353 354 352 346 347 353 352 353 354 351 349 348 347 346 346 346 346 348 349 349 350 350 351 350 350 348 347 346 346 347
345 345 344 343 344 346 344 337 334 339 344 347 347 346 345 347 341 341 342 342 345 350 353 353 350 349 350 351 352 353 352 352 353 352 353 353 353 353 353 352 350 349 350
345 344 344 344 343 344 342 337 333 332 342 342 341 341 345 348 346 340 336 336 337 339 342 344 345 345 348 350 353 354 354 354 356 357 356 356 357 356 355 354 354 352 351
346 345 344 344 344 343 341 339 339 338 335 334 341 344 334 333 338 344 346 347 344 339 336 337 338 338 340 348 352 355 355 356 356 355 354 354 357 356 356 356 353 351 351
346 345 344 344 343 342 341 339 341 343 342 335 332 331 331 330 328 329 330 331 332 334 344 346 347 346 349 354 357 358 357 356 356 355 356 356 357 356 355 352 349 349 349
345 346 346 344 342 340 339 338 340 342 343 337 335 333 331 330 330 330 331 332 334 341 350 352 357 360 361 360 362 357 356 355 355 357 358 356 356 355 352 350 349 349 347

GFSMA_850_thetae_063.txt.gz
Theta_e
347 347 347 346 347 344 342 342 343 345 345 346 346 344 342 341 341 342 336 326 325 332 333 336 336 334 330 330 329 328 332 330 330 331 332 329 326 325 324 326 330 333 332
348 348 346 346 345 345 346 345 345 344 345 344 345 346 344 344 344 344 342 327 326 327 325 325 330 327 324 325 326 325 334 326 326 325 324 328 328 328 330 331 331 333 333
350 349 348 345 347 348 348 346 341 339 340 344 342 346 342 344 345 345 343 343 342 340 329 325 327 329 326 325 326 327 325 323 323 325 327 327 332 334 334 334 335 335 337
350 349 347 348 346 346 346 344 342 341 339 342 343 344 343 343 344 344 345 345 346 346 342 337 334 329 328 335 332 330 335 332 330 330 330 330 331 333 333 335 336 336 338
346 351 349 350 341 347 343 345 341 342 340 338 340 341 343 341 344 344 343 344 343 345 347 341 333 334 332 332 337 337 335 335 335 336 336 336 336 337 336 333 333 335 335
352 347 350 348 347 346 346 345 343 342 343 342 343 342 343 341 340 342 342 341 342 343 343 344 343 346 337 326 328 333 333 332 329 328 329 330 330 330 329 328 328 325 320
352 346 352 343 347 347 349 344 344 344 336 338 342 340 340 339 341 341 339 340 339 340 340 342 343 343 345 338 332 329 330 328 326 325 326 325 323 322 320 319 319 318 318
353 353 352 351 349 348 349 348 349 344 342 339 340 341 340 340 343 340 338 339 341 341 343 342 342 337 340 342 334 320 320 320 321 320 320 320 319 319 318 318 318 318 317
353 354 346 352 349 349 349 345 344 347 345 343 345 339 342 340 338 336 338 340 343 343 343 341 343 342 342 343 336 334 324 324 324 322 322 320 319 318 318 318 318 319 322
352 353 354 352 343 351 350 349 347 347 346 343 340 342 341 342 343 338 340 341 343 343 344 344 344 344 343 343 341 330 327 327 326 326 325 325 324 323 322 323 323 324 324
353 352 353 349 347 348 350 349 351 346 343 347 340 339 340 335 342 343 344 343 343 342 343 345 342 342 344 343 342 338 330 328 328 328 328 327 327 327 326 325 325 325 325
351 352 353 352 347 353 351 352 351 347 347 344 344 340 337 340 340 342 341 341 342 343 342 342 342 342 342 344 343 340 332 331 330 330 330 330 329 328 328 327 327 327 327
347 349 348 351 349 347 354 354 350 352 351 348 341 342 342 342 343 342 343 342 341 342 341 342 342 343 343 344 344 344 339 336 335 334 333 333 332 332 331 329 328 327 328
346 348 349 352 352 356 353 352 350 350 351 348 350 343 347 343 343 343 343 343 341 340 341 341 343 344 344 345 345 344 342 337 337 337 337 336 336 335 335 334 334 333 330
347 347 351 354 352 351 354 353 352 353 352 352 353 350 346 346 343 343 343 343 342 343 343 348 345 344 344 344 345 343 339 335 332 333 334 335 336 336 336 336 335 335 335
347 349 349 350 353 352 352 353 351 352 354 354 351 350 348 347 346 346 344 344 344 343 343 343 343 343 343 343 340 340 339 338 333 331 331 331 331 331 332 334 335 336 336
351 347 350 351 351 352 352 353 350 353 355 349 353 353 353 348 352 348 348 347 346 345 344 343 342 342 342 344 340 337 338 340 346 344 343 341 340 339 336 334 333 334 336
349 352 349 348 344 348 351 353 353 351 356 355 354 352 353 352 347 346 351 350 348 346 347 345 346 346 346 347 347 347 348 349 348 346 341 340 340 338 338 336 335 336 336
344 349 351 347 346 343 347 353 353 353 354 354 353 353 353 354 353 353 353 350 350 351 352 353 353 352 350 349 349 348 349 347 348 349 346 345 345 345 347 348 348 346 343
342 343 344 346 347 348 347 349 353 354 354 353 353 354 354 354 355 354 353 353 353 350 352 352 350 350 350 348 347 347 347 347 347 348 350 351 351 351 352 352 352 351 350
341 342 344 345 346 351 350 348 349 352 352 353 353 353 353 352 354 355 356 355 355 356 355 354 352 351 349 347 349 351 348 351 353 352 352 351 352 354 355 354 354 354 354
341 342 344 344 345 350 349 347 346 347 349 350 351 352 350 353 355 352 349 345 345 349 350 352 349 348 347 349 351 353 354 353 356 354 354 356 357 357 357 356 357 355 355
341 343 344 344 344 344 346 348 346 344 347 346 346 342 347 350 350 349 346 340 339 339 341 341 342 341 341 342 344 351 352 352 356 356 357 357 358 357 357 356 357 357 356
342 343 344 344 344 344 341 343 345 343 342 338 343 342 337 335 342 350 353 353 351 344 335 339 343 343 343 342 348 354 355 356 358 357 358 359 358 358 359 358 356 353 353
344 344 345 345 345 344 343 340 342 344 345 343 338 335 334 334 329 328 332 334 335 336 339 342 344 345 348 351 354 358 360 360 359 359 358 358 359 358 356 352 352 350 345
345 346 348 347 345 344 342 341 342 344 351 348 342 335 333 332 330 331 332 332 333 333 334 338 344 350 356 361 360 362 359 359 357 359 359 358 356 357 352 349 349 347 344

GFSMA_850_thetae_069.txt.gz
Theta_e
345 345 345 340 344 343 343 343 342 342 342 344 343 344 343 342 342 325 324 323 330 328 330 328 328 327 327 325 326 328 327 326 324 324 325 327 328 332 333 334 334 334 335
346 344 345 344 344 344 344 342 341 340 341 342 342 343 342 343 340 342 338 329 325 324 325 326 326 323 323 324 323 324 326 323 323 323 324 329 332 333 333 333 334 335 335
346 344 344 344 343 344 344 345 345 345 343 341 341 342 343 342 342 342 341 343 342 340 333 327 325 325 324 324 324 324 324 323 323 326 328 329 330 331 334 335 332 331 335
344 347 344 345 346 343 343 340 345 345 343 343 342 343 343 340 340 342 341 341 342 342 343 333 335 334 331 332 334 332 335 334 335 335 335 334 334 334 331 330 328 329 327
346 345 344 346 343 343 340 341 342 344 344 343 343 344 342 342 340 340 341 342 341 341 341 340 343 341 341 327 328 333 332 330 329 328 328 328 328 327 325 325 324 322 319
344 347 344 343 347 343 342 342 343 344 343 342 342 342 342 341 341 341 341 342 340 341 342 340 342 344 343 337 325 326 328 328 326 325 324 322 321 321 320 319 319 319 317
339 341 344 343 346 345 344 342 344 343 341 341 343 340 342 339 340 341 342 341 339 342 340 341 343 342 342 342 337 321 320 320 320 320 320 320 319 319 318 318 318 318 318
347 349 341 343 344 344 344 344 344 341 338 340 343 342 342 339 342 341 341 340 341 341 342 343 340 335 331 338 340 329 324 324 323 323 323 323 322 321 321 322 322 321 321
347 350 345 346 348 347 340 345 342 341 338 338 341 341 341 339 342 339 338 339 340 342 343 344 344 343 343 332 335 335 327 326 326 326 325 325 325 325 324 324 324 324 324
343 349 347 347 347 348 347 339 343 343 343 343 340 341 341 340 343 336 339 340 342 341 344 342 343 345 343 341 335 338 330 327 327 327 327 326 326 326 326 326 325 325 325
342 347 345 343 341 346 345 343 343 344 342 345 341 340 340 338 340 342 340 341 342 343 344 342 343 344 342 342 340 334 333 333 332 331 331 330 330 329 329 328 327 326 326
346 348 350 349 342 346 347 346 345 344 347 345 347 339 339 337 340 341 344 343 343 342 342 342 342 341 339 341 342 342 341 343 341 336 335 334 334 334 333 333 332 331 330
347 345 349 349 344 340 347 345 345 342 344 344 346 343 342 340 344 343 343 342 343 343 342 340 341 341 342 343 343 343 342 342 340 337 334 334 335 336 337 336 336 335 335
345 350 345 343 342 340 340 342 345 337 341 342 343 342 342 342 343 343 342 342 341 342 344 341 342 343 343 344 345 345 343 343 341 338 337 338 336 336 335 336 336 336 336
345 349 351 348 347 345 342 339 341 343 341 339 338 339 340 342 342 343 343 343 342 342 342 343 344 346 344 345 344 345 344 343 342 345 346 345 344 342 342 343 343 343 342
349 349 351 350 348 346 338 345 346 343 346 347 346 336 334 341 344 344 344 342 341 342 343 343 343 342 344 345 346 345 344 342 346 347 346 346 347 347 347 346 346 345 347
346 347 352 350 348 347 342 340 344 346 346 348 345 344 343 347 339 346 347 345 342 344 344 339 340 341 342 343 343 342 344 347 347 347 348 349 349 349 349 350 351 350 350
342 345 348 350 350 348 348 343 344 345 353 353 352 349 351 351 347 345 350 348 347 348 348 347 346 344 351 348 341 348 349 350 351 351 351 351 355 354 355 353 351 354 355
344 345 352 349 350 350 347 341 340 340 346 350 352 352 346 352 351 343 346 350 351 351 351 349 348 351 348 345 351 352 352 353 351 345 340 347 350 355 348 349 356 357 355
334 345 350 345 345 347 346 341 340 338 340 346 347 348 348 350 349 348 345 341 339 341 344 345 349 348 347 349 355 354 350 341 334 335 336 340 345 356 357 355 354 354 352
329 332 336 342 342 342 341 339 340 339 336 338 340 345 347 349 348 347 348 347 348 349 348 351 355 355 354 356 349 336 336 338 337 338 342 354 357 357 356 355 354 355 356
332 332 333 335 339 340 339 340 340 340 339 336 335 336 337 344 347 348 348 346 344 347 348 347 350 352 343 337 336 340 342 343 346 344 353 357 357 356 356 357 357 358 357
341 339 337 333 333 334 337 339 340 342 342 341 338 336 335 338 338 342 344 348 348 348 348 347 347 341 341 341 347 346 345 345 347 350 356 358 357 356 356 357 356 350 347
348 345 342 339 334 332 335 338 340 344 345 343 344 342 339 336 334 336 339 349 351 349 347 348 348 346 350 347 347 345 346 343 349 357 359 360 357 355 355 356 351 347 345
353 351 350 347 342 334 332 335 341 343 347 346 345 346 345 341 337 338 341 341 344 343 338 338 343 346 345 342 339 346 347 353 356 359 358 358 356 356 357 354 351 348 345
353 353 352 350 347 340 334 333 337 341 344 345 345 345 346 344 341 341 342 341 341 334 334 334 337 340 344 346 351 353 354 357 358 360 358 357 357 358 358 353 351 347 338

GFSMA_850_thetae_072.txt.gz
Theta_e
343 346 341 342 342 342 340 343 341 341 343 343 342 342 343 338 331 324 323 327 327 327 328 327 328 327 325 325 326 327 326 324 323 322 324 329 331 332 333 333 334 335 335
342 343 342 342 342 342 340 342 341 342 343 342 342 343 343 340 341 340 337 330 325 324 324 326 324 323 323 324 324 323 323 322 323 325 327 328 330 331 332 333 334 331 334
343 343 344 344 344 342 340 341 343 343 344 344 341 340 342 342 342 341 342 343 338 340 332 331 328 328 326 326 325 324 326 328 327 328 330 330 330 332 334 332 329 329 330
344 343 344 342 343 342 343 344 343 343 341 342 342 341 342 340 342 340 340 342 341 340 339 339 336 332 328 327 334 335 335 333 332 332 332 330 330 329 328 327 327 327 325
343 345 344 345 343 343 343 343 343 341 342 342 341 341 341 342 340 339 341 340 339 340 340 339 342 342 336 326 327 330 330 329 327 326 326 326 324 323 322 322 322 321 319
345 343 344 343 344 343 340 342 343 343 342 343 343 342 341 341 341 341 341 339 341 341 339 339 341 341 340 338 327 322 324 324 323 322 321 320 320 319 319 319 319 319 318
344 347 342 344 343 344 341 344 342 342 341 342 343 342 342 342 341 341 341 340 341 341 342 341 338 334 336 335 334 323 322 321 321 322 322 322 321 320 319 319 319 319 319
344 344 344 345 345 343 343 342 343 341 341 342 342 340 341 340 340 341 342 341 341 341 341 342 343 340 335 334 330 328 326 325 325 325 325 325 325 324 323 322 322 322 322
347 349 339 343 347 343 341 342 342 340 340 341 342 341 340 340 342 340 339 339 340 341 343 343 343 344 342 333 331 328 327 327 327 327 326 326 326 326 326 325 324 324 324
345 349 344 344 346 345 341 342 343 342 337 338 340 341 339 340 343 337 337 338 341 340 342 343 342 343 343 341 335 332 330 331 331 331 331 331 330 330 329 328 327 326 326
342 346 346 347 347 347 344 340 343 342 342 343 339 341 339 338 340 342 341 340 341 342 343 343 342 341 340 339 338 333 335 337 336 335 334 334 334 334 334 333 332 331 330
343 342 342 341 340 344 343 336 339 342 342 343 340 339 340 340 339 341 344 344 342 342 341 343 342 341 341 339 339 338 338 335 335 337 337 336 336 335 335 336 336 336 335
347 343 346 348 341 342 345 344 342 340 343 344 343 342 341 339 343 342 342 343 343 343 342 341 340 341 342 343 343 343 342 341 342 342 343 345 344 343 342 341 341 341 340
347 345 342 347 346 340 341 344 342 340 343 343 345 343 342 341 344 343 343 342 341 342 342 344 340 342 342 342 344 344 344 344 343 342 346 346 346 346 345 344 345 345 345
346 345 348 343 344 341 337 340 341 339 337 340 342 343 341 341 343 342 343 342 342 341 341 343 341 345 343 344 343 344 344 344 342 345 347 347 347 347 347 348 348 347 347
347 345 349 349 346 346 343 339 338 342 342 338 337 339 340 340 342 342 342 341 341 341 341 341 343 343 342 344 346 345 344 342 346 349 349 350 349 349 350 351 352 352 352
351 347 349 350 350 348 346 338 342 342 341 342 345 345 335 332 338 344 345 344 345 341 342 340 341 340 341 340 340 339 344 348 350 351 351 351 348 351 354 353 349 355 358
350 349 349 349 351 349 347 346 338 342 343 344 343 344 340 334 337 340 343 346 346 344 344 345 345 341 339 343 346 347 350 350 351 351 345 337 338 342 345 354 356 356 355
348 347 346 346 350 350 348 347 342 335 339 343 350 351 350 345 346 345 340 345 349 349 350 351 350 348 342 344 341 348 347 347 349 336 335 338 347 356 357 356 355 354 354
345 347 346 345 346 348 348 348 345 336 333 337 343 347 350 350 345 345 345 343 344 345 343 342 343 344 339 340 349 341 340 337 337 336 339 349 356 357 356 355 355 355 355
341 343 342 348 350 351 348 347 346 344 338 334 335 341 344 346 345 348 348 345 345 345 344 344 344 343 342 335 333 334 338 343 339 337 342 353 356 356 356 355 356 355 356
328 331 340 337 347 349 348 346 343 340 339 338 335 333 335 338 340 343 346 345 345 345 342 342 341 341 335 335 337 344 348 347 347 341 347 354 356 356 355 356 356 356 347
340 330 329 331 334 341 344 341 340 340 340 339 338 337 334 333 334 335 335 337 341 344 347 346 346 344 344 340 346 349 350 348 346 345 354 356 355 354 356 357 354 350 348
349 345 337 332 331 331 332 333 335 339 339 339 340 339 338 336 335 334 335 335 335 334 339 347 350 348 350 343 347 351 350 343 348 352 357 358 353 354 356 356 353 352 347
350 349 347 343 337 335 336 335 334 335 337 339 339 341 342 341 339 340 342 339 336 333 332 334 337 337 336 340 346 346 346 352 353 355 355 360 354 357 357 356 353 353 345
351 348 349 349 347 343 341 341 340 337 337 338 339 340 341 342 342 342 345 344 343 337 337 338 339 341 342 343 346 350 353 354 355 356 354 358 359 358 357 357 354 352 342

GFSMA_850_thetae_075.txt.gz
Theta_e
340 339 342 340 341 341 341 342 342 342 343 342 341 342 336 333 325 323 325 328 327 327 326 326 325 325 324 323 324 325 324 323 323 323 325 329 331 331 332 333 333 330 332
344 343 341 342 340 341 342 342 343 343 343 341 341 342 339 341 339 340 332 327 324 324 325 325 323 322 323 324 324 323 322 321 323 325 327 328 329 330 332 333 330 328 329
342 341 341 342 341 339 341 341 341 342 342 342 339 341 342 342 341 341 342 338 339 332 332 329 329 329 328 328 328 328 329 333 333 333 333 333 333 333 331 329 327 326 324
342 343 343 342 341 339 341 342 343 343 342 341 342 343 342 342 340 341 341 340 340 339 338 337 337 336 328 325 332 334 333 331 329 328 327 327 327 326 325 324 323 322 320
343 343 343 342 341 342 341 341 342 341 343 342 342 342 341 341 340 340 340 339 339 340 337 340 341 338 330 327 326 327 328 326 325 324 323 322 321 320 320 320 320 319 318
343 344 344 344 341 341 341 341 342 340 343 342 341 342 341 342 342 341 341 340 340 340 339 340 340 339 337 333 327 321 321 321 321 321 321 321 321 320 319 319 319 319 319
345 343 344 344 344 343 340 342 341 342 342 342 342 343 342 341 340 341 341 341 340 341 341 341 338 334 335 334 328 326 324 323 323 323 324 324 324 323 323 322 321 321 321
344 346 343 344 343 342 341 343 341 341 341 342 342 341 340 340 340 341 341 341 340 340 341 342 343 342 333 331 328 326 326 326 326 326 326 326 326 326 326 325 324 324 323
345 345 344 344 343 343 342 341 341 340 341 343 342 340 340 340 341 340 338 338 340 340 341 343 342 343 342 333 331 331 331 332 333 332 332 332 331 331 330 329 328 327 326
345 347 339 343 344 343 342 342 341 341 339 340 341 339 340 339 342 337 337 337 340 340 341 342 341 342 341 340 337 334 336 337 336 334 335 336 336 336 336 335 334 333 332
346 345 345 342 344 345 343 342 342 343 340 338 340 339 341 340 338 339 341 339 340 341 342 342 341 340 338 337 338 338 338 336 337 341 342 342 342 342 342 341 340 339 338
342 344 349 344 346 346 344 341 342 342 340 340 339 339 340 339 338 342 342 343 342 342 341 341 341 341 341 342 343 342 342 342 342 343 343 344 345 345 345 345 344 343 343
342 342 344 342 342 341 344 340 341 342 341 341 340 339 339 339 344 342 342 343 342 342 342 342 340 341 342 342 343 343 343 344 343 343 343 345 347 347 347 347 347 347 346
346 346 344 346 348 342 344 342 341 339 340 342 342 344 342 340 344 343 342 342 341 341 342 343 341 343 344 343 343 342 343 344 343 342 346 348 349 349 349 349 349 348 349
348 347 347 343 346 349 344 343 346 343 339 340 342 344 343 341 341 343 342 342 341 341 339 340 341 342 343 343 343 344 345 344 343 343 349 350 350 350 349 350 351 353 351
348 346 348 346 343 345 346 342 341 343 340 336 339 341 342 341 341 342 342 342 341 341 341 339 339 342 343 342 342 342 345 344 345 349 351 349 347 340 341 346 352 348 352
347 346 348 348 347 347 346 346 341 342 341 342 340 338 337 338 337 339 343 343 342 344 343 338 337 339 341 340 339 341 344 345 349 350 351 347 336 342 351 353 356 356 356
347 347 349 348 349 350 349 347 346 342 344 342 344 342 345 344 337 333 336 342 344 345 347 343 340 341 342 341 341 340 337 348 346 347 338 339 342 354 356 356 355 355 354
346 348 349 350 348 348 349 349 348 345 341 342 344 346 345 347 343 340 342 338 342 344 347 348 348 347 344 341 336 336 342 331 335 335 338 340 350 355 356 356 355 355 356
344 346 348 349 348 347 347 348 348 346 342 338 339 341 348 349 349 344 346 348 343 342 343 345 346 343 337 336 338 337 329 333 333 334 337 342 353 356 356 355 355 354 352
333 341 345 347 348 348 346 345 346 346 346 344 341 337 335 339 344 346 347 346 347 347 345 344 342 340 338 336 334 335 342 344 337 337 339 348 354 355 355 356 355 352 348
329 328 338 343 345 347 347 347 347 347 346 344 342 338 338 334 335 338 342 343 345 348 349 348 344 341 334 334 333 341 345 347 348 341 344 350 355 353 355 356 355 352 351
345 341 328 329 338 343 343 345 347 348 346 343 341 339 338 338 335 334 335 337 338 341 343 344 344 338 335 335 342 343 344 348 350 342 351 353 355 352 356 356 355 353 352
347 347 346 341 329 327 330 340 340 344 347 346 339 339 339 338 338 337 335 335 336 336 335 337 337 334 339 336 344 343 341 345 347 350 354 355 354 353 358 354 355 353 352
351 350 349 348 347 340 332 328 329 332 339 338 334 333 336 338 338 338 340 342 340 337 335 335 334 334 334 337 341 344 344 348 349 354 354 355 355 359 356 356 357 356 350
353 353 352 351 348 348 344 338 335 331 331 334 336 333 331 335 337 339 341 344 345 339 339 338 339 341 342 343 343 345 346 349 352 354 353 356 356 356 356 355 354 354 344